Time,TemperatureF,DewpointF,PressureIn,WindDirection,WindDirectionDegrees,WindSpeedMPH,WindSpeedGustMPH,Humidity,HourlyPrecipIn,Conditions,Clouds,dailyrainin,SoftwareType,DateUTC
2013-02-14 00:00:00,42.3,37.5,29.80,WSW,242,0.0,2.0,83,0.00,,,0.09,Wunderground v.1.15,2013-02-14 05:00:00,
2013-02-14 00:02:00,42.2,37.4,29.80,WSW,242,0.0,0.0,83,0.00,,,0.09,Wunderground v.1.15,2013-02-14 05:02:00,
2013-02-14 00:06:00,41.9,37.4,29.80,WSW,242,0.0,0.0,84,0.00,,,0.00,Wunderground v.1.15,2013-02-14 05:06:00,
2013-02-14 00:08:00,41.7,37.2,29.80,SW,225,0.0,2.0,84,0.00,,,0.00,Wunderground v.1.15,2013-02-14 05:08:00,
2013-02-14 00:09:00,41.6,37.1,29.80,SW,225,0.0,2.0,84,0.00,,,0.00,Wunderground v.1.15,2013-02-14 05:09:00,
2013-02-14 00:12:00,41.5,37.3,29.80,SW,225,0.0,0.0,85,0.00,,,0.00,Wunderground v.1.15,2013-02-14 05:12:00,
2013-02-14 00:14:00,41.3,37.1,29.80,SW,226,0.0,0.0,85,0.00,,,0.00,Wunderground v.1.15,2013-02-14 05:14:00,
2013-02-14 00:16:00,41.3,37.1,29.80,SW,226,0.0,0.0,85,0.00,,,0.00,Wunderground v.1.15,2013-02-14 05:16:00,
2013-02-14 00:18:00,41.2,37.0,29.80,SW,225,0.0,0.0,85,0.00,,,0.00,Wunderground v.1.15,2013-02-14 05:18:00,
2013-02-14 00:22:00,40.9,37.0,29.81,SW,225,0.0,0.0,86,0.00,,,0.00,Wunderground v.1.15,2013-02-14 05:22:00,
2013-02-14 00:26:00,40.7,36.8,29.81,SW,226,1.0,1.0,86,0.00,,,0.00,Wunderground v.1.15,2013-02-14 05:26:00,
2013-02-14 00:31:00,40.9,36.7,29.81,SSW,203,2.0,2.0,85,0.00,,,0.00,Wunderground v.1.15,2013-02-14 05:31:00,
2013-02-14 00:32:00,40.9,36.7,29.81,SW,229,1.0,2.0,85,0.00,,,0.00,Wunderground v.1.15,2013-02-14 05:32:00,
2013-02-14 00:36:00,40.9,36.4,29.82,WSW,252,0.0,2.0,84,0.00,,,0.00,Wunderground v.1.15,2013-02-14 05:36:00,
2013-02-14 00:38:00,40.9,36.4,29.82,WSW,252,0.0,2.0,84,0.00,,,0.00,Wunderground v.1.15,2013-02-14 05:38:00,
2013-02-14 00:41:00,40.8,36.3,29.82,WSW,252,0.0,0.0,84,0.00,,,0.00,Wunderground v.1.15,2013-02-14 05:41:00,
2013-02-14 00:43:00,40.7,36.2,29.82,WSW,252,0.0,0.0,84,0.00,,,0.00,Wunderground v.1.15,2013-02-14 05:43:00,
2013-02-14 00:44:00,40.7,36.2,29.82,WSW,251,0.0,0.0,84,0.00,,,0.00,Wunderground v.1.15,2013-02-14 05:44:00,
2013-02-14 00:48:00,40.5,36.3,29.82,WSW,252,0.0,0.0,85,0.00,,,0.00,Wunderground v.1.15,2013-02-14 05:48:00,
2013-02-14 00:49:00,40.4,36.2,29.82,WSW,252,0.0,0.0,85,0.00,,,0.00,Wunderground v.1.15,2013-02-14 05:49:00,
2013-02-14 00:50:00,40.3,36.1,29.82,WSW,252,0.0,0.0,85,0.00,,,0.00,Wunderground v.1.15,2013-02-14 05:50:00,
2013-02-14 00:54:00,40.1,36.2,29.82,WSW,252,0.0,0.0,86,0.00,,,0.00,Wunderground v.1.15,2013-02-14 05:54:00,
2013-02-14 00:56:00,40.0,36.2,29.82,West,265,0.0,0.0,86,0.00,,,0.00,Wunderground v.1.15,2013-02-14 05:56:00,
2013-02-14 00:57:00,39.9,36.1,29.82,West,266,0.0,0.0,86,0.00,,,0.00,Wunderground v.1.15,2013-02-14 05:57:00,
2013-02-14 01:00:00,39.9,36.1,29.82,NNW,336,0.0,0.0,86,0.00,,,0.00,Wunderground v.1.15,2013-02-14 06:00:00,
2013-02-14 01:01:00,39.9,36.1,29.83,NNW,332,0.0,0.0,86,0.00,,,0.00,Wunderground v.1.15,2013-02-14 06:01:00,
2013-02-14 01:03:00,39.9,36.1,29.82,NNW,332,0.0,1.0,86,0.00,,,0.00,Wunderground v.1.15,2013-02-14 06:03:00,
2013-02-14 01:06:00,39.8,36.0,29.82,NNW,332,0.0,1.0,86,0.00,,,0.00,Wunderground v.1.15,2013-02-14 06:06:00,
2013-02-14 01:08:00,39.7,35.9,29.82,West,271,0.0,2.0,86,0.00,,,0.00,Wunderground v.1.15,2013-02-14 06:08:00,
2013-02-14 01:09:00,39.7,35.9,29.82,West,271,0.0,2.0,86,0.00,,,0.00,Wunderground v.1.15,2013-02-14 06:09:00,
2013-02-14 01:10:00,39.6,35.8,29.82,NNE,30,1.0,1.0,86,0.00,,,0.00,Wunderground v.1.15,2013-02-14 06:10:00,
2013-02-14 01:13:00,39.6,35.8,29.82,NNE,27,0.0,1.0,86,0.00,,,0.00,Wunderground v.1.15,2013-02-14 06:13:00,
2013-02-14 01:15:00,39.5,35.7,29.82,NNE,15,0.0,1.0,86,0.00,,,0.00,Wunderground v.1.15,2013-02-14 06:15:00,
2013-02-14 01:16:00,39.5,35.7,29.82,North,4,1.0,1.0,86,0.00,,,0.00,Wunderground v.1.15,2013-02-14 06:16:00,
2013-02-14 01:17:00,39.5,35.7,29.82,NNW,333,1.0,1.0,86,0.00,,,0.00,Wunderground v.1.15,2013-02-14 06:17:00,
2013-02-14 01:18:00,39.5,35.7,29.82,West,281,0.0,1.0,86,0.00,,,0.00,Wunderground v.1.15,2013-02-14 06:18:00,
2013-02-14 01:20:00,39.4,35.6,29.82,WNW,285,1.0,1.0,86,0.00,,,0.00,Wunderground v.1.15,2013-02-14 06:20:00,
2013-02-14 01:24:00,39.5,35.4,29.82,West,265,1.0,1.0,85,0.00,,,0.00,Wunderground v.1.15,2013-02-14 06:24:00,
2013-02-14 01:26:00,39.4,35.3,29.82,West,265,0.0,1.0,85,0.00,,,0.00,Wunderground v.1.15,2013-02-14 06:26:00,
2013-02-14 01:31:00,39.4,35.3,29.83,West,260,0.0,1.0,85,0.00,,,0.00,Wunderground v.1.15,2013-02-14 06:31:00,
2013-02-14 01:33:00,39.4,35.3,29.83,West,280,0.0,1.0,85,0.00,,,0.00,Wunderground v.1.15,2013-02-14 06:33:00,
2013-02-14 01:34:00,39.5,35.4,29.83,West,274,0.0,1.0,85,0.00,,,0.00,Wunderground v.1.15,2013-02-14 06:34:00,
2013-02-14 01:38:00,39.5,35.1,29.83,West,266,1.0,1.0,84,0.00,,,0.00,Wunderground v.1.15,2013-02-14 06:38:00,
2013-02-14 01:39:00,39.5,35.1,29.83,West,267,0.0,1.0,84,0.00,,,0.00,Wunderground v.1.15,2013-02-14 06:39:00,
2013-02-14 01:40:00,39.4,35.0,29.83,West,267,0.0,0.0,84,0.00,,,0.00,Wunderground v.1.15,2013-02-14 06:40:00,
2013-02-14 01:45:00,39.3,34.9,29.83,NW,311,0.0,1.0,84,0.00,,,0.00,Wunderground v.1.15,2013-02-14 06:45:00,
2013-02-14 01:46:00,39.3,34.9,29.83,NW,311,0.0,1.0,84,0.00,,,0.00,Wunderground v.1.15,2013-02-14 06:46:00,
2013-02-14 01:47:00,39.3,34.9,29.83,NW,311,0.0,1.0,84,0.00,,,0.00,Wunderground v.1.15,2013-02-14 06:47:00,
2013-02-14 01:49:00,39.3,34.9,29.83,WSW,254,0.0,1.0,84,0.00,,,0.00,Wunderground v.1.15,2013-02-14 06:49:00,
2013-02-14 01:52:00,39.3,34.9,29.83,WNW,300,0.0,1.0,84,0.00,,,0.00,Wunderground v.1.15,2013-02-14 06:52:00,
2013-02-14 01:53:00,39.3,34.9,29.83,SE,139,0.0,1.0,84,0.00,,,0.00,Wunderground v.1.15,2013-02-14 06:53:00,
2013-02-14 01:56:00,39.3,34.9,29.83,ENE,63,1.0,1.0,84,0.00,,,0.00,Wunderground v.1.15,2013-02-14 06:56:00,
2013-02-14 01:58:00,39.2,34.8,29.83,WNW,288,3.0,3.0,84,0.00,,,0.00,Wunderground v.1.15,2013-02-14 06:58:00,
2013-02-14 01:59:00,39.2,34.8,29.83,West,276,0.0,3.0,84,0.00,,,0.00,Wunderground v.1.15,2013-02-14 06:59:00,
2013-02-14 02:01:00,39.2,34.8,29.83,East,91,0.0,1.0,84,0.00,,,0.00,Wunderground v.1.15,2013-02-14 07:01:00,
2013-02-14 02:03:00,39.2,34.8,29.83,ENE,72,1.0,2.0,84,0.00,,,0.00,Wunderground v.1.15,2013-02-14 07:03:00,
2013-02-14 02:04:00,39.2,34.8,29.83,ENE,72,0.0,2.0,84,0.00,,,0.00,Wunderground v.1.15,2013-02-14 07:04:00,
2013-02-14 02:06:00,39.1,34.7,29.83,NNW,347,1.0,2.0,84,0.00,,,0.00,Wunderground v.1.15,2013-02-14 07:06:00,
2013-02-14 02:08:00,39.1,34.4,29.83,NNE,15,1.0,2.0,83,0.00,,,0.00,Wunderground v.1.15,2013-02-14 07:08:00,
2013-02-14 02:09:00,39.1,34.7,29.83,NE,41,0.0,2.0,84,0.00,,,0.00,Wunderground v.1.15,2013-02-14 07:09:00,
2013-02-14 02:11:00,39.1,34.4,29.83,NE,51,0.0,1.0,83,0.00,,,0.00,Wunderground v.1.15,2013-02-14 07:11:00,
2013-02-14 02:13:00,39.0,34.3,29.83,NE,51,0.0,1.0,83,0.00,,,0.00,Wunderground v.1.15,2013-02-14 07:13:00,
2013-02-14 02:14:00,39.0,34.3,29.83,NE,50,0.0,1.0,83,0.00,,,0.00,Wunderground v.1.15,2013-02-14 07:14:00,
2013-02-14 02:16:00,39.0,34.3,29.83,WSW,252,0.0,2.0,83,0.00,,,0.00,Wunderground v.1.15,2013-02-14 07:16:00,
2013-02-14 02:17:00,39.0,34.3,29.83,SW,215,0.0,2.0,83,0.00,,,0.00,Wunderground v.1.15,2013-02-14 07:17:00,
2013-02-14 02:18:00,39.0,34.3,29.83,SE,124,0.0,2.0,83,0.00,,,0.00,Wunderground v.1.15,2013-02-14 07:18:00,
2013-02-14 02:20:00,39.0,34.3,29.83,SE,124,0.0,2.0,83,0.00,,,0.00,Wunderground v.1.15,2013-02-14 07:20:00,
2013-02-14 02:21:00,38.9,34.2,29.83,SE,125,0.0,0.0,83,0.00,,,0.00,Wunderground v.1.15,2013-02-14 07:21:00,
2013-02-14 02:22:00,38.9,34.2,29.84,SE,125,0.0,0.0,83,0.00,,,0.00,Wunderground v.1.15,2013-02-14 07:22:00,
2013-02-14 02:23:00,38.9,34.2,29.84,SE,125,0.0,0.0,83,0.00,,,0.00,Wunderground v.1.15,2013-02-14 07:23:00,
2013-02-14 02:25:00,38.9,34.2,29.84,West,262,1.0,2.0,83,0.00,,,0.00,Wunderground v.1.15,2013-02-14 07:25:00,
2013-02-14 02:26:00,38.8,34.1,29.84,West,262,0.0,2.0,83,0.00,,,0.00,Wunderground v.1.15,2013-02-14 07:26:00,
2013-02-14 02:27:00,38.8,34.1,29.84,West,262,0.0,2.0,83,0.00,,,0.00,Wunderground v.1.15,2013-02-14 07:27:00,
2013-02-14 02:28:00,38.8,34.1,29.84,West,262,0.0,2.0,83,0.00,,,0.00,Wunderground v.1.15,2013-02-14 07:28:00,
2013-02-14 02:30:00,38.7,34.0,29.84,West,262,1.0,2.0,83,0.00,,,0.00,Wunderground v.1.15,2013-02-14 07:30:00,
2013-02-14 02:32:00,38.7,34.3,29.84,West,262,0.0,1.0,84,0.00,,,0.00,Wunderground v.1.15,2013-02-14 07:32:00,
2013-02-14 02:34:00,38.7,34.3,29.84,West,262,0.0,1.0,84,0.00,,,0.00,Wunderground v.1.15,2013-02-14 07:34:00,
2013-02-14 02:35:00,38.6,34.2,29.84,West,261,0.0,1.0,84,0.00,,,0.00,Wunderground v.1.15,2013-02-14 07:35:00,
2013-02-14 02:37:00,38.6,34.2,29.84,West,262,0.0,1.0,84,0.00,,,0.00,Wunderground v.1.15,2013-02-14 07:37:00,
2013-02-14 02:38:00,38.6,34.2,29.84,SW,229,0.0,1.0,84,0.00,,,0.00,Wunderground v.1.15,2013-02-14 07:38:00,
2013-02-14 02:39:00,38.5,34.1,29.84,SW,229,0.0,1.0,84,0.00,,,0.00,Wunderground v.1.15,2013-02-14 07:39:00,
2013-02-14 02:40:00,38.5,34.1,29.85,SW,229,0.0,0.0,84,0.00,,,0.00,Wunderground v.1.15,2013-02-14 07:40:00,
2013-02-14 02:42:00,38.5,34.1,29.85,SW,229,0.0,0.0,84,0.00,,,0.00,Wunderground v.1.15,2013-02-14 07:42:00,
2013-02-14 02:43:00,38.5,34.1,29.85,SW,229,0.0,0.0,84,0.00,,,0.00,Wunderground v.1.15,2013-02-14 07:43:00,
2013-02-14 02:44:00,38.4,34.0,29.85,SW,229,0.0,1.0,84,0.00,,,0.00,Wunderground v.1.15,2013-02-14 07:44:00,
2013-02-14 02:45:00,38.4,34.0,29.85,SW,229,0.0,1.0,84,0.00,,,0.00,Wunderground v.1.15,2013-02-14 07:45:00,
2013-02-14 02:47:00,38.4,34.0,29.85,SW,229,0.0,1.0,84,0.00,,,0.00,Wunderground v.1.15,2013-02-14 07:47:00,
2013-02-14 02:48:00,38.4,34.0,29.85,SSW,193,0.0,1.0,84,0.00,,,0.00,Wunderground v.1.15,2013-02-14 07:48:00,
2013-02-14 02:49:00,38.3,33.9,29.85,SSW,193,0.0,1.0,84,0.00,,,0.00,Wunderground v.1.15,2013-02-14 07:49:00,
2013-02-14 02:50:00,38.3,33.9,29.85,SSW,193,0.0,0.0,84,0.00,,,0.00,Wunderground v.1.15,2013-02-14 07:50:00,
2013-02-14 02:52:00,38.3,33.9,29.85,SSW,193,0.0,0.0,84,0.00,,,0.00,Wunderground v.1.15,2013-02-14 07:52:00,
2013-02-14 02:53:00,38.3,33.9,29.86,SSW,193,0.0,1.0,84,0.00,,,0.00,Wunderground v.1.15,2013-02-14 07:53:00,
2013-02-14 02:54:00,38.2,33.8,29.86,SSW,193,0.0,1.0,84,0.00,,,0.00,Wunderground v.1.15,2013-02-14 07:54:00,
2013-02-14 02:55:00,38.2,33.8,29.86,SSW,193,0.0,1.0,84,0.00,,,0.00,Wunderground v.1.15,2013-02-14 07:55:00,
2013-02-14 02:57:00,38.1,33.7,29.86,SSW,193,0.0,1.0,84,0.00,,,0.00,Wunderground v.1.15,2013-02-14 07:57:00,
2013-02-14 02:58:00,38.0,33.9,29.86,SSW,193,0.0,1.0,85,0.00,,,0.00,Wunderground v.1.15,2013-02-14 07:58:00,
2013-02-14 02:59:00,38.0,33.9,29.86,SSW,193,0.0,1.0,85,0.00,,,0.00,Wunderground v.1.15,2013-02-14 07:59:00,
2013-02-14 03:00:00,37.9,33.8,29.86,SSW,193,0.0,0.0,85,0.00,,,0.00,Wunderground v.1.15,2013-02-14 08:00:00,
2013-02-14 03:02:00,37.9,33.8,29.86,SSW,193,0.0,0.0,85,0.00,,,0.00,Wunderground v.1.15,2013-02-14 08:02:00,
2013-02-14 03:03:00,37.8,33.7,29.86,SSW,193,0.0,0.0,85,0.00,,,0.00,Wunderground v.1.15,2013-02-14 08:03:00,
2013-02-14 03:04:00,37.7,33.6,29.86,SSW,193,0.0,0.0,85,0.00,,,0.00,Wunderground v.1.15,2013-02-14 08:04:00,
2013-02-14 03:06:00,37.7,33.6,29.86,SSW,192,0.0,0.0,85,0.00,,,0.00,Wunderground v.1.15,2013-02-14 08:06:00,
2013-02-14 03:07:00,37.6,33.5,29.85,SSW,192,0.0,0.0,85,0.00,,,0.00,Wunderground v.1.15,2013-02-14 08:07:00,
2013-02-14 03:09:00,37.4,33.6,29.85,SSW,193,0.0,0.0,86,0.00,,,0.00,Wunderground v.1.15,2013-02-14 08:09:00,
2013-02-14 03:10:00,37.3,33.5,29.85,SSW,192,0.0,0.0,86,0.00,,,0.00,Wunderground v.1.15,2013-02-14 08:10:00,
2013-02-14 03:11:00,37.2,33.4,29.85,SSW,193,0.0,0.0,86,0.00,,,0.00,Wunderground v.1.15,2013-02-14 08:11:00,
2013-02-14 03:12:00,37.0,33.2,29.86,SSW,193,0.0,0.0,86,0.00,,,0.00,Wunderground v.1.15,2013-02-14 08:12:00,
2013-02-14 03:14:00,36.9,33.4,29.86,SSW,193,0.0,0.0,87,0.00,,,0.00,Wunderground v.1.15,2013-02-14 08:14:00,
2013-02-14 03:15:00,36.8,33.3,29.86,SSW,193,0.0,0.0,87,0.00,,,0.00,Wunderground v.1.15,2013-02-14 08:15:00,
2013-02-14 03:16:00,36.8,33.3,29.86,SSW,192,0.0,0.0,87,0.00,,,0.00,Wunderground v.1.15,2013-02-14 08:16:00,
2013-02-14 03:18:00,36.6,33.4,29.86,SSW,193,0.0,0.0,88,0.00,,,0.00,Wunderground v.1.15,2013-02-14 08:18:00,
2013-02-14 03:19:00,36.5,33.3,29.86,SSW,193,0.0,0.0,88,0.00,,,0.00,Wunderground v.1.15,2013-02-14 08:19:00,
2013-02-14 03:20:00,36.4,33.2,29.86,SSW,193,0.0,0.0,88,0.00,,,0.00,Wunderground v.1.15,2013-02-14 08:20:00,
2013-02-14 03:21:00,36.4,33.5,29.86,SSW,193,0.0,0.0,89,0.00,,,0.00,Wunderground v.1.15,2013-02-14 08:21:00,
2013-02-14 03:23:00,36.3,33.4,29.87,SSW,193,0.0,0.0,89,0.00,,,0.00,Wunderground v.1.15,2013-02-14 08:23:00,
2013-02-14 03:24:00,36.1,33.2,29.87,SSW,193,0.0,0.0,89,0.00,,,0.00,Wunderground v.1.15,2013-02-14 08:24:00,
2013-02-14 03:25:00,36.1,33.2,29.87,SSW,193,0.0,0.0,89,0.00,,,0.00,Wunderground v.1.15,2013-02-14 08:25:00,
2013-02-14 03:26:00,36.0,33.1,29.87,SSW,193,0.0,0.0,89,0.00,,,0.00,Wunderground v.1.15,2013-02-14 08:26:00,
2013-02-14 03:28:00,36.0,33.4,29.87,SSW,193,0.0,0.0,90,0.00,,,0.00,Wunderground v.1.15,2013-02-14 08:28:00,
2013-02-14 03:29:00,35.8,33.2,29.87,SSW,193,0.0,0.0,90,0.00,,,0.00,Wunderground v.1.15,2013-02-14 08:29:00,
2013-02-14 03:31:00,35.8,33.2,29.87,SSW,193,0.0,0.0,90,0.00,,,0.00,Wunderground v.1.15,2013-02-14 08:31:00,
2013-02-14 03:32:00,35.7,33.1,29.87,SSW,193,0.0,0.0,90,0.00,,,0.00,Wunderground v.1.15,2013-02-14 08:32:00,
2013-02-14 03:33:00,35.6,33.0,29.87,SSW,192,0.0,0.0,90,0.00,,,0.00,Wunderground v.1.15,2013-02-14 08:33:00,
2013-02-14 03:35:00,35.5,32.9,29.87,SSW,193,0.0,0.0,90,0.00,,,0.00,Wunderground v.1.15,2013-02-14 08:35:00,
2013-02-14 03:36:00,35.4,32.8,29.87,SSW,193,0.0,0.0,90,0.00,,,0.00,Wunderground v.1.15,2013-02-14 08:36:00,
2013-02-14 03:37:00,35.4,32.8,29.88,SSW,192,0.0,0.0,90,0.00,,,0.00,Wunderground v.1.15,2013-02-14 08:37:00,
2013-02-14 03:38:00,35.3,32.7,29.87,SSW,193,0.0,0.0,90,0.00,,,0.00,Wunderground v.1.15,2013-02-14 08:38:00,
2013-02-14 03:40:00,35.2,32.6,29.87,SSW,193,0.0,0.0,90,0.00,,,0.00,Wunderground v.1.15,2013-02-14 08:40:00,
2013-02-14 03:41:00,35.1,32.7,29.87,SSW,193,0.0,0.0,91,0.00,,,0.00,Wunderground v.1.15,2013-02-14 08:41:00,
2013-02-14 03:42:00,35.1,32.7,29.88,SSW,193,0.0,0.0,91,0.00,,,0.00,Wunderground v.1.15,2013-02-14 08:42:00,
2013-02-14 03:43:00,35.1,32.7,29.87,SSW,192,0.0,0.0,91,0.00,,,0.00,Wunderground v.1.15,2013-02-14 08:43:00,
2013-02-14 03:45:00,35.0,32.6,29.88,SSW,193,0.0,0.0,91,0.00,,,0.00,Wunderground v.1.15,2013-02-14 08:45:00,
2013-02-14 03:46:00,34.9,32.5,29.87,SSW,193,0.0,0.0,91,0.00,,,0.00,Wunderground v.1.15,2013-02-14 08:46:00,
2013-02-14 03:47:00,34.9,32.5,29.87,SSW,193,0.0,0.0,91,0.00,,,0.00,Wunderground v.1.15,2013-02-14 08:47:00,
2013-02-14 03:48:00,34.9,32.8,29.87,SSW,193,0.0,0.0,92,0.00,,,0.00,Wunderground v.1.15,2013-02-14 08:48:00,
2013-02-14 03:50:00,34.9,32.8,29.87,SSW,193,0.0,0.0,92,0.00,,,0.00,Wunderground v.1.15,2013-02-14 08:50:00,
2013-02-14 03:51:00,34.8,32.7,29.87,SSW,193,0.0,0.0,92,0.00,,,0.00,Wunderground v.1.15,2013-02-14 08:51:00,
2013-02-14 03:52:00,34.8,32.7,29.87,SSW,193,0.0,0.0,92,0.00,,,0.00,Wunderground v.1.15,2013-02-14 08:52:00,
2013-02-14 03:53:00,34.8,32.7,29.87,SSW,193,0.0,0.0,92,0.00,,,0.00,Wunderground v.1.15,2013-02-14 08:53:00,
2013-02-14 03:55:00,34.7,32.6,29.87,SSW,193,0.0,1.0,92,0.00,,,0.00,Wunderground v.1.15,2013-02-14 08:55:00,
2013-02-14 03:56:00,34.7,32.6,29.87,SSW,193,0.0,1.0,92,0.00,,,0.00,Wunderground v.1.15,2013-02-14 08:56:00,
2013-02-14 03:57:00,34.7,32.6,29.87,SSW,193,0.0,1.0,92,0.00,,,0.00,Wunderground v.1.15,2013-02-14 08:57:00,
2013-02-14 03:59:00,34.6,32.5,29.87,SSW,193,0.0,1.0,92,0.00,,,0.00,Wunderground v.1.15,2013-02-14 08:59:00,
2013-02-14 04:01:00,34.6,32.5,29.88,SSW,193,0.0,0.0,92,0.00,,,0.00,Wunderground v.1.15,2013-02-14 09:01:00,
2013-02-14 04:02:00,34.5,32.7,29.88,SSW,193,0.0,0.0,93,0.00,,,0.00,Wunderground v.1.15,2013-02-14 09:02:00,
2013-02-14 04:04:00,34.5,32.7,29.88,SSW,193,0.0,0.0,93,0.00,,,0.00,Wunderground v.1.15,2013-02-14 09:04:00,
2013-02-14 04:06:00,34.5,32.7,29.88,SSW,193,1.0,1.0,93,0.00,,,0.00,Wunderground v.1.15,2013-02-14 09:06:00,
2013-02-14 04:07:00,34.4,32.6,29.88,SSW,193,1.0,1.0,93,0.00,,,0.00,Wunderground v.1.15,2013-02-14 09:07:00,
2013-02-14 04:08:00,34.4,32.6,29.88,SSW,193,1.0,1.0,93,0.00,,,0.00,Wunderground v.1.15,2013-02-14 09:08:00,
2013-02-14 04:09:00,34.4,32.6,29.88,SSW,194,1.0,1.0,93,0.00,,,0.00,Wunderground v.1.15,2013-02-14 09:09:00,
2013-02-14 04:11:00,34.3,32.5,29.88,SSW,194,0.0,1.0,93,0.00,,,0.00,Wunderground v.1.15,2013-02-14 09:11:00,
2013-02-14 04:12:00,34.2,32.4,29.88,SSW,194,1.0,1.0,93,0.00,,,0.00,Wunderground v.1.15,2013-02-14 09:12:00,
2013-02-14 04:13:00,34.2,32.4,29.88,SSW,194,0.0,1.0,93,0.00,,,0.00,Wunderground v.1.15,2013-02-14 09:13:00,
2013-02-14 04:14:00,34.2,32.4,29.88,SSW,194,0.0,1.0,93,0.00,,,0.00,Wunderground v.1.15,2013-02-14 09:14:00,
2013-02-14 04:16:00,34.1,32.3,29.88,SSW,194,0.0,1.0,93,0.00,,,0.00,Wunderground v.1.15,2013-02-14 09:16:00,
2013-02-14 04:17:00,34.0,32.2,29.88,SSW,194,0.0,1.0,93,0.00,,,0.00,Wunderground v.1.15,2013-02-14 09:17:00,
2013-02-14 04:18:00,34.0,32.2,29.88,SSW,194,0.0,1.0,93,0.00,,,0.00,Wunderground v.1.15,2013-02-14 09:18:00,
2013-02-14 04:19:00,34.0,32.2,29.89,SSW,194,0.0,1.0,93,0.00,,,0.00,Wunderground v.1.15,2013-02-14 09:19:00,
2013-02-14 04:21:00,33.9,32.1,29.89,SSW,194,0.0,0.0,93,0.00,,,0.00,Wunderground v.1.15,2013-02-14 09:21:00,
2013-02-14 04:22:00,33.8,32.0,29.89,SSW,194,0.0,0.0,93,0.00,,,0.00,Wunderground v.1.15,2013-02-14 09:22:00,
2013-02-14 04:23:00,33.8,32.0,29.89,SSW,194,0.0,0.0,93,0.00,,,0.00,Wunderground v.1.15,2013-02-14 09:23:00,
2013-02-14 04:24:00,33.7,31.9,29.89,SSW,195,0.0,0.0,93,0.00,,,0.00,Wunderground v.1.15,2013-02-14 09:24:00,
2013-02-14 04:27:00,33.6,31.8,29.89,SSW,194,0.0,0.0,93,0.00,,,0.00,Wunderground v.1.15,2013-02-14 09:27:00,
2013-02-14 04:28:00,33.6,31.8,29.89,SSW,194,0.0,0.0,93,0.00,,,0.00,Wunderground v.1.15,2013-02-14 09:28:00,
2013-02-14 04:29:00,33.6,32.1,29.89,SSW,194,1.0,1.0,94,0.00,,,0.00,Wunderground v.1.15,2013-02-14 09:29:00,
2013-02-14 04:32:00,33.6,32.1,29.89,SSW,194,0.0,0.0,94,0.00,,,0.00,Wunderground v.1.15,2013-02-14 09:32:00,
2013-02-14 04:33:00,33.6,32.1,29.89,SSW,194,0.0,0.0,94,0.00,,,0.00,Wunderground v.1.15,2013-02-14 09:33:00,
2013-02-14 04:34:00,33.6,32.1,29.89,SSW,195,0.0,0.0,94,0.00,,,0.00,Wunderground v.1.15,2013-02-14 09:34:00,
2013-02-14 04:37:00,33.5,32.0,29.89,SSW,194,0.0,0.0,94,0.00,,,0.00,Wunderground v.1.15,2013-02-14 09:37:00,
2013-02-14 04:38:00,33.5,32.0,29.89,SSW,195,0.0,0.0,94,0.00,,,0.00,Wunderground v.1.15,2013-02-14 09:38:00,
2013-02-14 04:39:00,33.4,31.9,29.89,SSW,195,0.0,0.0,94,0.00,,,0.00,Wunderground v.1.15,2013-02-14 09:39:00,
2013-02-14 04:42:00,33.3,31.8,29.89,SSW,194,1.0,1.0,94,0.00,,,0.00,Wunderground v.1.15,2013-02-14 09:42:00,
2013-02-14 04:43:00,33.3,31.8,29.89,SSW,195,0.0,1.0,94,0.00,,,0.00,Wunderground v.1.15,2013-02-14 09:43:00,
2013-02-14 04:45:00,33.2,31.7,29.89,SSW,194,0.0,1.0,94,0.00,,,0.00,Wunderground v.1.15,2013-02-14 09:45:00,
2013-02-14 04:47:00,33.1,31.6,29.89,SSW,194,0.0,1.0,94,0.00,,,0.00,Wunderground v.1.15,2013-02-14 09:47:00,
2013-02-14 04:48:00,33.1,31.6,29.90,SSW,194,0.0,1.0,94,0.00,,,0.00,Wunderground v.1.15,2013-02-14 09:48:00,
2013-02-14 04:49:00,33.1,31.6,29.89,SSW,194,0.0,1.0,94,0.00,,,0.00,Wunderground v.1.15,2013-02-14 09:49:00,
2013-02-14 04:52:00,33.0,31.5,29.90,SSW,194,0.0,0.0,94,0.00,,,0.00,Wunderground v.1.15,2013-02-14 09:52:00,
2013-02-14 04:53:00,32.9,31.4,29.90,SSW,194,0.0,0.0,94,0.00,,,0.00,Wunderground v.1.15,2013-02-14 09:53:00,
2013-02-14 04:55:00,32.9,31.4,29.90,SSW,194,0.0,0.0,94,0.00,,,0.00,Wunderground v.1.15,2013-02-14 09:55:00,
2013-02-14 04:57:00,32.8,31.3,29.90,SSW,194,0.0,0.0,94,0.00,,,0.00,Wunderground v.1.15,2013-02-14 09:57:00,
2013-02-14 04:58:00,32.8,31.3,29.90,SSW,194,0.0,0.0,94,0.00,,,0.00,Wunderground v.1.15,2013-02-14 09:58:00,
2013-02-14 04:59:00,32.8,31.3,29.90,SSW,194,0.0,0.0,94,0.00,,,0.00,Wunderground v.1.15,2013-02-14 09:59:00,
2013-02-14 05:00:00,32.8,31.3,29.90,SSW,194,0.0,0.0,94,0.00,,,0.00,Wunderground v.1.15,2013-02-14 10:00:00,
2013-02-14 05:02:00,32.7,31.2,29.90,SSW,194,0.0,0.0,94,0.00,,,0.00,Wunderground v.1.15,2013-02-14 10:02:00,
2013-02-14 05:03:00,32.7,31.2,29.90,SSW,194,0.0,0.0,94,0.00,,,0.00,Wunderground v.1.15,2013-02-14 10:03:00,
2013-02-14 05:04:00,32.7,31.2,29.90,SSW,194,0.0,0.0,94,0.00,,,0.00,Wunderground v.1.15,2013-02-14 10:04:00,
2013-02-14 05:05:00,32.6,31.1,29.90,SSW,194,0.0,0.0,94,0.00,,,0.00,Wunderground v.1.15,2013-02-14 10:05:00,
2013-02-14 05:07:00,32.5,31.0,29.90,SSW,195,0.0,0.0,94,0.00,,,0.00,Wunderground v.1.15,2013-02-14 10:07:00,
2013-02-14 05:08:00,32.5,31.0,29.91,SSW,194,0.0,0.0,94,0.00,,,0.00,Wunderground v.1.15,2013-02-14 10:08:00,
2013-02-14 05:09:00,32.5,31.0,29.91,SSW,194,0.0,0.0,94,0.00,,,0.00,Wunderground v.1.15,2013-02-14 10:09:00,
2013-02-14 05:10:00,32.5,31.2,29.91,SSW,194,0.0,0.0,95,0.00,,,0.00,Wunderground v.1.15,2013-02-14 10:10:00,
2013-02-14 05:12:00,32.4,31.1,29.91,SSW,194,0.0,0.0,95,0.00,,,0.00,Wunderground v.1.15,2013-02-14 10:12:00,
2013-02-14 05:13:00,32.5,31.2,29.91,SSW,194,0.0,0.0,95,0.00,,,0.00,Wunderground v.1.15,2013-02-14 10:13:00,
2013-02-14 05:14:00,32.4,31.1,29.91,SSW,194,0.0,0.0,95,0.00,,,0.00,Wunderground v.1.15,2013-02-14 10:14:00,
2013-02-14 05:16:00,32.4,31.1,29.91,SSW,194,0.0,0.0,95,0.00,,,0.00,Wunderground v.1.15,2013-02-14 10:16:00,
2013-02-14 05:17:00,32.4,31.1,29.91,SSW,194,0.0,0.0,95,0.00,,,0.00,Wunderground v.1.15,2013-02-14 10:17:00,
2013-02-14 05:19:00,32.3,31.0,29.91,SSW,194,0.0,0.0,95,0.00,,,0.00,Wunderground v.1.15,2013-02-14 10:19:00,
2013-02-14 05:21:00,32.3,31.0,29.91,SSW,194,0.0,0.0,95,0.00,,,0.00,Wunderground v.1.15,2013-02-14 10:21:00,
2013-02-14 05:23:00,32.2,30.9,29.91,SSW,195,0.0,0.0,95,0.00,,,0.00,Wunderground v.1.15,2013-02-14 10:23:00,
2013-02-14 05:24:00,32.1,30.8,29.91,SSW,194,0.0,0.0,95,0.00,,,0.00,Wunderground v.1.15,2013-02-14 10:24:00,
2013-02-14 05:26:00,32.0,30.7,29.92,SSW,194,0.0,0.0,95,0.00,,,0.00,Wunderground v.1.15,2013-02-14 10:26:00,
2013-02-14 05:28:00,31.9,30.6,29.92,SSW,194,0.0,0.0,95,0.00,,,0.00,Wunderground v.1.15,2013-02-14 10:28:00,
2013-02-14 05:29:00,31.9,30.6,29.92,SSW,194,0.0,0.0,95,0.00,,,0.00,Wunderground v.1.15,2013-02-14 10:29:00,
2013-02-14 05:32:00,31.9,30.6,29.92,SSW,194,0.0,0.0,95,0.00,,,0.00,Wunderground v.1.15,2013-02-14 10:32:00,
2013-02-14 05:33:00,31.8,30.5,29.92,SSW,194,0.0,0.0,95,0.00,,,0.00,Wunderground v.1.15,2013-02-14 10:33:00,
2013-02-14 05:34:00,31.8,30.5,29.92,SSW,194,0.0,0.0,95,0.00,,,0.00,Wunderground v.1.15,2013-02-14 10:34:00,
2013-02-14 05:37:00,31.7,30.4,29.92,SSW,194,0.0,0.0,95,0.00,,,0.00,Wunderground v.1.15,2013-02-14 10:37:00,
2013-02-14 05:38:00,31.6,30.3,29.92,SSW,194,0.0,0.0,95,0.00,,,0.00,Wunderground v.1.15,2013-02-14 10:38:00,
2013-02-14 05:39:00,31.6,30.3,29.92,SSW,194,0.0,0.0,95,0.00,,,0.00,Wunderground v.1.15,2013-02-14 10:39:00,
2013-02-14 05:42:00,31.5,30.2,29.92,SSW,195,0.0,0.0,95,0.00,,,0.00,Wunderground v.1.15,2013-02-14 10:42:00,
2013-02-14 05:43:00,31.4,30.1,29.92,SSW,194,0.0,0.0,95,0.00,,,0.00,Wunderground v.1.15,2013-02-14 10:43:00,
2013-02-14 05:44:00,31.4,30.1,29.92,SSW,195,0.0,0.0,95,0.00,,,0.00,Wunderground v.1.15,2013-02-14 10:44:00,
2013-02-14 05:47:00,31.3,30.0,29.92,SSW,194,0.0,0.0,95,0.00,,,0.00,Wunderground v.1.15,2013-02-14 10:47:00,
2013-02-14 05:49:00,31.2,29.9,29.92,SSW,194,0.0,0.0,95,0.00,,,0.00,Wunderground v.1.15,2013-02-14 10:49:00,
2013-02-14 05:50:00,31.2,29.9,29.92,SSW,194,0.0,0.0,95,0.00,,,0.00,Wunderground v.1.15,2013-02-14 10:50:00,
2013-02-14 05:52:00,31.1,29.8,29.92,SSW,194,0.0,0.0,95,0.00,,,0.00,Wunderground v.1.15,2013-02-14 10:52:00,
2013-02-14 05:54:00,31.1,29.8,29.92,SSW,194,0.0,0.0,95,0.00,,,0.00,Wunderground v.1.15,2013-02-14 10:54:00,
2013-02-14 05:55:00,31.0,29.7,29.93,SSW,194,0.0,0.0,95,0.00,,,0.00,Wunderground v.1.15,2013-02-14 10:55:00,
2013-02-14 05:57:00,31.0,29.7,29.92,SSW,195,0.0,0.0,95,0.00,,,0.00,Wunderground v.1.15,2013-02-14 10:57:00,
2013-02-14 05:59:00,31.0,29.7,29.93,SSW,194,0.0,0.0,95,0.00,,,0.00,Wunderground v.1.15,2013-02-14 10:59:00,
2013-02-14 06:00:00,30.9,29.6,29.93,SSW,194,0.0,0.0,95,0.00,,,0.00,Wunderground v.1.15,2013-02-14 11:00:00,
2013-02-14 06:02:00,30.8,29.5,29.93,SSW,194,0.0,0.0,95,0.00,,,0.00,Wunderground v.1.15,2013-02-14 11:02:00,
2013-02-14 06:04:00,30.8,29.5,29.93,SSW,194,0.0,0.0,95,0.00,,,0.00,Wunderground v.1.15,2013-02-14 11:04:00,
2013-02-14 06:05:00,30.8,29.5,29.93,SSW,195,0.0,0.0,95,0.00,,,0.00,Wunderground v.1.15,2013-02-14 11:05:00,
2013-02-14 06:07:00,30.9,29.9,29.93,SSW,194,0.0,0.0,96,0.00,,,0.00,Wunderground v.1.15,2013-02-14 11:07:00,
2013-02-14 06:10:00,30.9,29.9,29.93,SSW,194,0.0,0.0,96,0.00,,,0.00,Wunderground v.1.15,2013-02-14 11:10:00,
2013-02-14 06:11:00,31.0,30.0,29.93,SSW,194,0.0,0.0,96,0.00,,,0.00,Wunderground v.1.15,2013-02-14 11:11:00,
2013-02-14 06:13:00,30.9,29.9,29.94,SSW,195,0.0,0.0,96,0.00,,,0.00,Wunderground v.1.15,2013-02-14 11:13:00,
2013-02-14 06:15:00,30.9,29.9,29.94,SSW,195,0.0,0.0,96,0.00,,,0.00,Wunderground v.1.15,2013-02-14 11:15:00,
2013-02-14 06:16:00,30.9,29.9,29.94,SSW,195,0.0,0.0,96,0.00,,,0.00,Wunderground v.1.15,2013-02-14 11:16:00,
2013-02-14 06:18:00,30.8,29.8,29.94,SSW,194,0.0,0.0,96,0.00,,,0.00,Wunderground v.1.15,2013-02-14 11:18:00,
2013-02-14 06:20:00,30.8,29.8,29.94,SSW,194,0.0,0.0,96,0.00,,,0.00,Wunderground v.1.15,2013-02-14 11:20:00,
2013-02-14 06:21:00,30.7,29.7,29.94,SSW,195,0.0,0.0,96,0.00,,,0.00,Wunderground v.1.15,2013-02-14 11:21:00,
2013-02-14 06:24:00,30.7,29.7,29.94,SSW,194,0.0,0.0,96,0.00,,,0.00,Wunderground v.1.15,2013-02-14 11:24:00,
2013-02-14 06:25:00,30.8,29.8,29.94,SSW,195,0.0,0.0,96,0.00,,,0.00,Wunderground v.1.15,2013-02-14 11:25:00,
2013-02-14 06:26:00,30.8,29.8,29.94,SSW,194,0.0,0.0,96,0.00,,,0.00,Wunderground v.1.15,2013-02-14 11:26:00,
2013-02-14 06:29:00,30.8,29.8,29.94,SSW,194,0.0,0.0,96,0.00,,,0.00,Wunderground v.1.15,2013-02-14 11:29:00,
2013-02-14 06:30:00,30.7,29.7,29.94,SSW,195,0.0,0.0,96,0.00,,,0.00,Wunderground v.1.15,2013-02-14 11:30:00,
2013-02-14 06:31:00,30.7,29.7,29.94,SSW,194,0.0,0.0,96,0.00,,,0.00,Wunderground v.1.15,2013-02-14 11:31:00,
2013-02-14 06:34:00,30.6,29.6,29.94,SSW,194,0.0,0.0,96,0.00,,,0.00,Wunderground v.1.15,2013-02-14 11:34:00,
2013-02-14 06:35:00,30.5,29.5,29.95,SSW,194,0.0,0.0,96,0.00,,,0.00,Wunderground v.1.15,2013-02-14 11:35:00,
2013-02-14 06:36:00,30.5,29.5,29.95,SSW,195,0.0,0.0,96,0.00,,,0.00,Wunderground v.1.15,2013-02-14 11:36:00,
2013-02-14 06:39:00,30.4,29.4,29.95,SSW,194,0.0,0.0,96,0.00,,,0.00,Wunderground v.1.15,2013-02-14 11:39:00,
2013-02-14 06:40:00,30.4,29.4,29.95,SSW,195,0.0,0.0,96,0.00,,,0.00,Wunderground v.1.15,2013-02-14 11:40:00,
2013-02-14 06:41:00,30.3,29.3,29.95,SSW,195,0.0,0.0,96,0.00,,,0.00,Wunderground v.1.15,2013-02-14 11:41:00,
2013-02-14 06:45:00,30.3,29.3,29.95,SSW,194,0.0,0.0,96,0.00,,,0.00,Wunderground v.1.15,2013-02-14 11:45:00,
2013-02-14 06:46:00,30.3,29.3,29.95,SSW,195,0.0,0.0,96,0.00,,,0.00,Wunderground v.1.15,2013-02-14 11:46:00,
2013-02-14 06:50:00,30.3,29.3,29.95,SSW,194,0.0,0.0,96,0.00,,,0.00,Wunderground v.1.15,2013-02-14 11:50:00,
2013-02-14 06:51:00,30.3,29.3,29.95,SSW,195,0.0,0.0,96,0.00,,,0.00,Wunderground v.1.15,2013-02-14 11:51:00,
2013-02-14 06:55:00,30.4,29.4,29.95,SSW,195,0.0,0.0,96,0.00,,,0.00,Wunderground v.1.15,2013-02-14 11:55:00,
2013-02-14 06:56:00,30.4,29.4,29.95,SSW,194,0.0,0.0,96,0.00,,,0.00,Wunderground v.1.15,2013-02-14 11:56:00,
2013-02-14 06:57:00,30.4,29.4,29.95,SSW,194,0.0,0.0,96,0.00,,,0.00,Wunderground v.1.15,2013-02-14 11:57:00,
2013-02-14 07:01:00,30.5,29.5,29.95,SSW,194,0.0,0.0,96,0.00,,,0.00,Wunderground v.1.15,2013-02-14 12:01:00,
2013-02-14 07:02:00,30.5,29.5,29.95,SSW,194,0.0,0.0,96,0.00,,,0.00,Wunderground v.1.15,2013-02-14 12:02:00,
2013-02-14 07:06:00,30.5,29.5,29.95,SSW,194,0.0,0.0,96,0.00,,,0.00,Wunderground v.1.15,2013-02-14 12:06:00,
2013-02-14 07:07:00,30.6,29.6,29.95,SSW,195,0.0,0.0,96,0.00,,,0.00,Wunderground v.1.15,2013-02-14 12:07:00,
2013-02-14 07:11:00,30.6,29.6,29.95,SSW,194,0.0,0.0,96,0.00,,,0.00,Wunderground v.1.15,2013-02-14 12:11:00,
2013-02-14 07:12:00,30.6,29.6,29.96,SSW,194,0.0,0.0,96,0.00,,,0.00,Wunderground v.1.15,2013-02-14 12:12:00,
2013-02-14 07:16:00,30.4,29.4,29.96,SSW,195,0.0,0.0,96,0.00,,,0.00,Wunderground v.1.15,2013-02-14 12:16:00,
2013-02-14 07:17:00,30.4,29.4,29.96,SSW,195,0.0,0.0,96,0.00,,,0.00,Wunderground v.1.15,2013-02-14 12:17:00,
2013-02-14 07:21:00,30.2,29.2,29.96,SSW,195,0.0,0.0,96,0.00,,,0.00,Wunderground v.1.15,2013-02-14 12:21:00,
2013-02-14 07:22:00,30.2,29.2,29.96,SSW,194,0.0,0.0,96,0.00,,,0.00,Wunderground v.1.15,2013-02-14 12:22:00,
2013-02-14 07:26:00,30.3,29.3,29.96,SSW,194,0.0,0.0,96,0.00,,,0.00,Wunderground v.1.15,2013-02-14 12:26:00,
2013-02-14 07:27:00,30.4,29.4,29.96,SSW,195,0.0,0.0,96,0.00,,,0.00,Wunderground v.1.15,2013-02-14 12:27:00,
2013-02-14 07:31:00,30.6,29.6,29.96,SSW,194,0.0,0.0,96,0.00,,,0.00,Wunderground v.1.15,2013-02-14 12:31:00,
2013-02-14 07:32:00,30.6,29.6,29.96,SSW,194,0.0,0.0,96,0.00,,,0.00,Wunderground v.1.15,2013-02-14 12:32:00,
2013-02-14 07:36:00,30.7,29.7,29.97,SSW,194,0.0,0.0,96,0.00,,,0.00,Wunderground v.1.15,2013-02-14 12:36:00,
2013-02-14 07:37:00,30.7,29.7,29.97,SSW,194,0.0,0.0,96,0.00,,,0.00,Wunderground v.1.15,2013-02-14 12:37:00,
2013-02-14 07:41:00,30.8,29.8,29.97,SSW,194,0.0,0.0,96,0.00,,,0.00,Wunderground v.1.15,2013-02-14 12:41:00,
2013-02-14 07:42:00,30.8,29.8,29.96,SSW,194,0.0,0.0,96,0.00,,,0.00,Wunderground v.1.15,2013-02-14 12:42:00,
2013-02-14 07:43:00,30.8,29.8,29.97,SSW,194,0.0,0.0,96,0.00,,,0.00,Wunderground v.1.15,2013-02-14 12:43:00,
2013-02-14 07:46:00,30.9,29.9,29.97,SSW,194,0.0,0.0,96,0.00,,,0.00,Wunderground v.1.15,2013-02-14 12:46:00,
2013-02-14 07:47:00,31.0,30.0,29.97,SSW,195,0.0,0.0,96,0.00,,,0.00,Wunderground v.1.15,2013-02-14 12:47:00,
2013-02-14 07:48:00,31.0,30.0,29.97,SSW,194,0.0,0.0,96,0.00,,,0.00,Wunderground v.1.15,2013-02-14 12:48:00,
2013-02-14 07:51:00,31.1,30.1,29.96,SSW,194,0.0,0.0,96,0.00,,,0.00,Wunderground v.1.15,2013-02-14 12:51:00,
2013-02-14 07:52:00,31.1,30.1,29.97,SSW,195,0.0,0.0,96,0.00,,,0.00,Wunderground v.1.15,2013-02-14 12:52:00,
2013-02-14 07:53:00,31.1,30.1,29.97,SSW,194,0.0,0.0,96,0.00,,,0.00,Wunderground v.1.15,2013-02-14 12:53:00,
2013-02-14 07:57:00,31.2,30.2,29.97,SSW,194,0.0,0.0,96,0.00,,,0.00,Wunderground v.1.15,2013-02-14 12:57:00,
2013-02-14 07:58:00,31.3,30.5,29.98,SSW,194,0.0,0.0,97,0.00,,,0.00,Wunderground v.1.15,2013-02-14 12:58:00,
2013-02-14 08:02:00,31.5,30.7,29.97,SSW,194,0.0,0.0,97,0.00,,,0.00,Wunderground v.1.15,2013-02-14 13:02:00,
2013-02-14 08:03:00,31.5,30.7,29.98,SSW,195,0.0,0.0,97,0.00,,,0.00,Wunderground v.1.15,2013-02-14 13:03:00,
2013-02-14 08:07:00,31.7,30.9,29.98,SSW,194,0.0,0.0,97,0.00,,,0.00,Wunderground v.1.15,2013-02-14 13:07:00,
2013-02-14 08:08:00,31.7,30.9,29.98,SSW,194,0.0,0.0,97,0.00,,,0.00,Wunderground v.1.15,2013-02-14 13:08:00,
2013-02-14 08:12:00,32.0,31.2,29.98,SSW,194,0.0,0.0,97,0.00,,,0.00,Wunderground v.1.15,2013-02-14 13:12:00,
2013-02-14 08:13:00,32.1,31.3,29.98,SSW,194,0.0,0.0,97,0.00,,,0.00,Wunderground v.1.15,2013-02-14 13:13:00,
2013-02-14 08:18:00,32.4,31.6,29.98,SSW,194,0.0,0.0,97,0.00,,,0.00,Wunderground v.1.15,2013-02-14 13:18:00,
2013-02-14 08:19:00,32.7,31.9,29.99,SSW,194,0.0,0.0,97,0.00,,,0.00,Wunderground v.1.15,2013-02-14 13:19:00,
2013-02-14 08:23:00,33.1,32.3,29.99,SSW,194,0.0,0.0,97,0.00,,,0.00,Wunderground v.1.15,2013-02-14 13:23:00,
2013-02-14 08:24:00,33.2,32.4,29.99,SSW,194,0.0,0.0,97,0.00,,,0.00,Wunderground v.1.15,2013-02-14 13:24:00,
2013-02-14 08:25:00,33.2,32.4,29.99,SSW,194,0.0,0.0,97,0.00,,,0.00,Wunderground v.1.15,2013-02-14 13:25:00,
2013-02-14 08:28:00,33.3,32.5,30.00,SSW,195,0.0,0.0,97,0.00,,,0.00,Wunderground v.1.15,2013-02-14 13:28:00,
2013-02-14 08:29:00,33.3,32.5,30.00,SSW,194,0.0,0.0,97,0.00,,,0.00,Wunderground v.1.15,2013-02-14 13:29:00,
2013-02-14 08:30:00,33.3,32.5,30.00,SSW,194,0.0,0.0,97,0.00,,,0.00,Wunderground v.1.15,2013-02-14 13:30:00,
2013-02-14 08:33:00,33.3,32.5,30.00,SSW,194,0.0,0.0,97,0.00,,,0.00,Wunderground v.1.15,2013-02-14 13:33:00,
2013-02-14 08:34:00,33.3,32.5,30.01,SSW,194,0.0,0.0,97,0.00,,,0.00,Wunderground v.1.15,2013-02-14 13:34:00,
2013-02-14 08:35:00,33.4,32.6,30.01,SSW,195,0.0,0.0,97,0.00,,,0.00,Wunderground v.1.15,2013-02-14 13:35:00,
2013-02-14 08:38:00,33.6,32.8,30.01,SSW,194,0.0,0.0,97,0.00,,,0.00,Wunderground v.1.15,2013-02-14 13:38:00,
2013-02-14 08:39:00,33.8,33.0,30.01,SSW,194,0.0,0.0,97,0.00,,,0.00,Wunderground v.1.15,2013-02-14 13:39:00,
2013-02-14 08:40:00,33.8,33.0,30.01,SSW,194,0.0,0.0,97,0.00,,,0.00,Wunderground v.1.15,2013-02-14 13:40:00,
2013-02-14 08:43:00,34.1,33.3,30.02,SSW,194,0.0,0.0,97,0.00,,,0.00,Wunderground v.1.15,2013-02-14 13:43:00,
2013-02-14 08:44:00,34.2,33.4,30.02,SSW,194,0.0,0.0,97,0.00,,,0.00,Wunderground v.1.15,2013-02-14 13:44:00,
2013-02-14 08:45:00,34.2,33.7,30.02,SSW,195,0.0,0.0,98,0.00,,,0.00,Wunderground v.1.15,2013-02-14 13:45:00,
2013-02-14 08:49:00,34.4,33.9,30.02,SSW,194,0.0,0.0,98,0.00,,,0.00,Wunderground v.1.15,2013-02-14 13:49:00,
2013-02-14 08:50:00,34.5,34.0,30.02,SSW,195,0.0,0.0,98,0.00,,,0.00,Wunderground v.1.15,2013-02-14 13:50:00,
2013-02-14 08:54:00,34.8,34.3,30.02,SW,233,1.0,1.0,98,0.00,,,0.00,Wunderground v.1.15,2013-02-14 13:54:00,
2013-02-14 08:55:00,34.9,34.4,30.02,SW,233,0.0,1.0,98,0.00,,,0.00,Wunderground v.1.15,2013-02-14 13:55:00,
2013-02-14 08:59:00,35.3,34.5,30.02,SW,233,0.0,1.0,97,0.00,,,0.00,Wunderground v.1.15,2013-02-14 13:59:00,
2013-02-14 09:00:00,35.4,34.6,30.02,SW,233,0.0,0.0,97,0.00,,,0.00,Wunderground v.1.15,2013-02-14 14:00:00,
2013-02-14 09:04:00,35.8,35.0,30.02,SW,233,0.0,1.0,97,0.00,,,0.00,Wunderground v.1.15,2013-02-14 14:04:00,
2013-02-14 09:05:00,35.8,35.0,30.01,SW,218,0.0,1.0,97,0.00,,,0.00,Wunderground v.1.15,2013-02-14 14:05:00,
2013-02-14 09:06:00,36.0,35.2,30.01,SW,232,1.0,1.0,97,0.00,,,0.00,Wunderground v.1.15,2013-02-14 14:06:00,
2013-02-14 09:09:00,36.3,35.3,30.01,SW,228,0.0,1.0,96,0.00,,,0.00,Wunderground v.1.15,2013-02-14 14:09:00,
2013-02-14 09:10:00,36.3,35.3,30.01,SW,228,0.0,1.0,96,0.00,,,0.00,Wunderground v.1.15,2013-02-14 14:10:00,
2013-02-14 09:11:00,36.5,35.2,30.01,NNE,12,1.0,2.0,95,0.00,,,0.00,Wunderground v.1.15,2013-02-14 14:11:00,
2013-02-14 09:15:00,36.9,35.1,30.01,North,11,0.0,2.0,93,0.00,,,0.00,Wunderground v.1.15,2013-02-14 14:15:00,
2013-02-14 09:16:00,37.2,35.4,30.01,North,352,0.0,2.0,93,0.00,,,0.00,Wunderground v.1.15,2013-02-14 14:16:00,
2013-02-14 09:20:00,37.7,35.0,30.01,North,356,1.0,3.0,90,0.00,,,0.00,Wunderground v.1.15,2013-02-14 14:20:00,
2013-02-14 09:21:00,38.1,35.1,30.01,NNW,332,2.0,2.0,89,0.00,,,0.00,Wunderground v.1.15,2013-02-14 14:21:00,
2013-02-14 09:25:00,38.7,35.2,30.02,NNE,16,1.0,2.0,87,0.00,,,0.00,Wunderground v.1.15,2013-02-14 14:25:00,
2013-02-14 09:27:00,39.0,34.9,30.01,NNE,32,2.0,2.0,85,0.00,,,0.00,Wunderground v.1.15,2013-02-14 14:27:00,
2013-02-14 09:30:00,39.5,34.8,30.01,WNW,282,1.0,2.0,83,0.00,,,0.00,Wunderground v.1.15,2013-02-14 14:30:00,
2013-02-14 09:32:00,39.7,34.7,30.01,NW,306,1.0,3.0,82,0.00,,,0.00,Wunderground v.1.15,2013-02-14 14:32:00,
2013-02-14 09:35:00,40.1,34.4,30.01,NNE,30,0.0,4.0,80,0.00,,,0.00,Wunderground v.1.15,2013-02-14 14:35:00,
2013-02-14 09:37:00,40.4,34.7,30.01,East,85,0.0,4.0,80,0.00,,,0.00,Wunderground v.1.15,2013-02-14 14:37:00,
2013-02-14 09:40:00,40.8,34.5,30.01,NNE,23,2.0,2.0,78,0.00,,,0.00,Wunderground v.1.15,2013-02-14 14:40:00,
2013-02-14 09:42:00,41.1,34.1,30.01,WSW,240,1.0,4.0,76,0.00,,,0.00,Wunderground v.1.15,2013-02-14 14:42:00,
2013-02-14 09:45:00,41.5,34.2,30.01,NNE,13,1.0,5.0,75,0.00,,,0.00,Wunderground v.1.15,2013-02-14 14:45:00,
2013-02-14 09:47:00,41.6,33.6,30.01,NNE,20,1.0,5.0,73,0.00,,,0.00,Wunderground v.1.15,2013-02-14 14:47:00,
2013-02-14 09:51:00,41.9,33.5,30.00,WSW,249,1.0,3.0,72,0.00,,,0.00,Wunderground v.1.15,2013-02-14 14:51:00,
2013-02-14 09:52:00,42.0,33.6,30.00,NW,312,3.0,5.0,72,0.00,,,0.00,Wunderground v.1.15,2013-02-14 14:52:00,
2013-02-14 09:56:00,42.3,33.6,30.00,North,4,2.0,5.0,71,0.00,,,0.00,Wunderground v.1.15,2013-02-14 14:56:00,
2013-02-14 09:57:00,42.4,33.3,30.00,NNE,32,1.0,5.0,70,0.00,,,0.00,Wunderground v.1.15,2013-02-14 14:57:00,
2013-02-14 10:01:00,42.7,32.9,30.00,North,1,2.0,3.0,68,0.00,,,0.00,Wunderground v.1.15,2013-02-14 15:01:00,
2013-02-14 10:02:00,42.7,32.9,30.00,East,80,1.0,3.0,68,0.00,,,0.00,Wunderground v.1.15,2013-02-14 15:02:00,
2013-02-14 10:06:00,43.1,33.3,30.00,NNE,20,4.0,5.0,68,0.00,,,0.00,Wunderground v.1.15,2013-02-14 15:06:00,
2013-02-14 10:07:00,43.1,33.3,30.00,NE,34,2.0,6.0,68,0.00,,,0.00,Wunderground v.1.15,2013-02-14 15:07:00,
2013-02-14 10:11:00,43.2,32.6,30.00,NE,43,4.0,6.0,66,0.00,,,0.00,Wunderground v.1.15,2013-02-14 15:11:00,
2013-02-14 10:12:00,43.3,33.1,30.00,NNE,20,1.0,6.0,67,0.00,,,0.00,Wunderground v.1.15,2013-02-14 15:12:00,
2013-02-14 10:16:00,43.4,33.2,30.00,WSW,240,3.0,6.0,67,0.00,,,0.00,Wunderground v.1.15,2013-02-14 15:16:00,
2013-02-14 10:17:00,43.4,33.2,30.00,NE,42,3.0,6.0,67,0.00,,,0.00,Wunderground v.1.15,2013-02-14 15:17:00,
2013-02-14 10:21:00,43.6,33.0,30.00,West,259,0.0,2.0,66,0.00,,,0.00,Wunderground v.1.15,2013-02-14 15:21:00,
2013-02-14 10:22:00,43.7,33.1,30.00,WSW,248,2.0,2.0,66,0.00,,,0.00,Wunderground v.1.15,2013-02-14 15:22:00,
2013-02-14 10:26:00,44.2,33.2,30.01,West,270,2.0,5.0,65,0.00,,,0.00,Wunderground v.1.15,2013-02-14 15:26:00,
2013-02-14 10:27:00,44.2,33.2,30.01,North,354,1.0,5.0,65,0.00,,,0.00,Wunderground v.1.15,2013-02-14 15:27:00,
2013-02-14 10:31:00,44.5,33.5,30.01,WNW,288,1.0,4.0,65,0.00,,,0.00,Wunderground v.1.15,2013-02-14 15:31:00,
2013-02-14 10:32:00,44.5,33.5,30.01,SW,226,1.0,4.0,65,0.00,,,0.00,Wunderground v.1.15,2013-02-14 15:32:00,
2013-02-14 10:33:00,44.6,33.6,30.01,NW,314,1.0,4.0,65,0.00,,,0.00,Wunderground v.1.15,2013-02-14 15:33:00,
2013-02-14 10:37:00,45.1,33.2,30.02,West,276,2.0,4.0,63,0.00,,,0.00,Wunderground v.1.15,2013-02-14 15:37:00,
2013-02-14 10:38:00,45.3,33.4,30.01,NNE,25,2.0,4.0,63,0.00,,,0.00,Wunderground v.1.15,2013-02-14 15:38:00,
2013-02-14 10:42:00,45.5,32.8,30.02,NNE,20,2.0,2.0,61,0.00,,,0.00,Wunderground v.1.15,2013-02-14 15:42:00,
2013-02-14 10:43:00,45.5,32.8,30.02,NNE,13,2.0,4.0,61,0.00,,,0.00,Wunderground v.1.15,2013-02-14 15:43:00,
2013-02-14 10:47:00,45.5,31.6,30.02,WSW,244,1.0,5.0,58,0.00,,,0.00,Wunderground v.1.15,2013-02-14 15:47:00,
2013-02-14 10:48:00,45.5,31.6,30.02,NE,43,2.0,5.0,58,0.00,,,0.00,Wunderground v.1.15,2013-02-14 15:48:00,
2013-02-14 10:52:00,45.6,32.1,30.02,NE,55,0.0,2.0,59,0.00,,,0.00,Wunderground v.1.15,2013-02-14 15:52:00,
2013-02-14 10:53:00,45.6,31.7,30.01,NE,55,0.0,2.0,58,0.00,,,0.00,Wunderground v.1.15,2013-02-14 15:53:00,
2013-02-14 10:54:00,45.6,31.7,30.01,NNW,340,1.0,2.0,58,0.00,,,0.00,Wunderground v.1.15,2013-02-14 15:54:00,
2013-02-14 10:57:00,46.0,32.5,30.01,ENE,60,1.0,2.0,59,0.00,,,0.00,Wunderground v.1.15,2013-02-14 15:57:00,
2013-02-14 10:58:00,46.1,32.1,30.02,ENE,65,0.0,2.0,58,0.00,,,0.00,Wunderground v.1.15,2013-02-14 15:58:00,
2013-02-14 10:59:00,46.1,31.7,30.01,ENE,65,0.0,2.0,57,0.00,,,0.00,Wunderground v.1.15,2013-02-14 15:59:00,
2013-02-14 11:02:00,46.3,31.4,30.01,NNE,33,3.0,4.0,56,0.00,,,0.00,Wunderground v.1.15,2013-02-14 16:02:00,
2013-02-14 11:03:00,46.3,32.3,30.02,WSW,258,2.0,4.0,58,0.00,,,0.00,Wunderground v.1.15,2013-02-14 16:03:00,
2013-02-14 11:04:00,46.4,32.0,30.02,WSW,240,2.0,4.0,57,0.00,,,0.00,Wunderground v.1.15,2013-02-14 16:04:00,
2013-02-14 11:07:00,46.4,31.5,30.02,NNE,13,4.0,4.0,56,0.00,,,0.00,Wunderground v.1.15,2013-02-14 16:07:00,
2013-02-14 11:08:00,46.4,31.1,30.02,North,11,2.0,4.0,55,0.00,,,0.00,Wunderground v.1.15,2013-02-14 16:08:00,
2013-02-14 11:09:00,46.4,31.1,30.02,NE,37,2.0,4.0,55,0.00,,,0.00,Wunderground v.1.15,2013-02-14 16:09:00,
2013-02-14 11:12:00,46.3,31.4,30.02,East,90,1.0,1.0,56,0.00,,,0.00,Wunderground v.1.15,2013-02-14 16:12:00,
2013-02-14 11:13:00,46.4,31.5,30.02,East,93,2.0,2.0,56,0.00,,,0.00,Wunderground v.1.15,2013-02-14 16:13:00,
2013-02-14 11:14:00,46.4,31.1,30.02,ENE,75,2.0,2.0,55,0.00,,,0.00,Wunderground v.1.15,2013-02-14 16:14:00,
2013-02-14 11:17:00,46.5,31.6,30.02,East,79,3.0,4.0,56,0.00,,,0.00,Wunderground v.1.15,2013-02-14 16:17:00,
2013-02-14 11:18:00,46.5,31.2,30.02,East,91,1.0,4.0,55,0.00,,,0.00,Wunderground v.1.15,2013-02-14 16:18:00,
2013-02-14 11:19:00,46.5,31.2,30.02,ESE,115,1.0,4.0,55,0.00,,,0.00,Wunderground v.1.15,2013-02-14 16:19:00,
2013-02-14 11:23:00,46.5,31.6,30.01,SE,126,0.0,5.0,56,0.00,,,0.00,Wunderground v.1.15,2013-02-14 16:23:00,
2013-02-14 11:24:00,46.6,32.6,30.01,SE,125,1.0,5.0,58,0.00,,,0.00,Wunderground v.1.15,2013-02-14 16:24:00,
2013-02-14 11:25:00,46.7,32.7,30.01,NNW,338,3.0,5.0,58,0.00,,,0.00,Wunderground v.1.15,2013-02-14 16:25:00,
2013-02-14 11:28:00,46.8,32.4,30.01,WSW,243,0.0,5.0,57,0.00,,,0.00,Wunderground v.1.15,2013-02-14 16:28:00,
2013-02-14 11:29:00,46.9,32.0,30.01,North,1,1.0,5.0,56,0.00,,,0.00,Wunderground v.1.15,2013-02-14 16:29:00,
2013-02-14 11:30:00,46.9,32.4,30.02,ENE,61,2.0,4.0,57,0.00,,,0.00,Wunderground v.1.15,2013-02-14 16:30:00,
2013-02-14 11:33:00,46.9,31.6,30.02,SW,217,1.0,4.0,55,0.00,,,0.00,Wunderground v.1.15,2013-02-14 16:33:00,
2013-02-14 11:34:00,46.9,32.0,30.02,SSW,205,1.0,4.0,56,0.00,,,0.00,Wunderground v.1.15,2013-02-14 16:34:00,
2013-02-14 11:35:00,47.1,32.2,30.02,SW,217,1.0,4.0,56,0.00,,,0.00,Wunderground v.1.15,2013-02-14 16:35:00,
2013-02-14 11:38:00,47.2,31.4,30.01,ENE,69,2.0,4.0,54,0.00,,,0.00,Wunderground v.1.15,2013-02-14 16:38:00,
2013-02-14 11:39:00,47.1,31.3,30.01,ENE,76,1.0,4.0,54,0.00,,,0.00,Wunderground v.1.15,2013-02-14 16:39:00,
2013-02-14 11:40:00,47.1,31.3,30.01,ENE,75,1.0,2.0,54,0.00,,,0.00,Wunderground v.1.15,2013-02-14 16:40:00,
2013-02-14 11:43:00,47.1,31.7,30.01,NNW,344,2.0,4.0,55,0.00,,,0.00,Wunderground v.1.15,2013-02-14 16:43:00,
2013-02-14 11:44:00,47.1,31.7,30.01,NNE,13,3.0,4.0,55,0.00,,,0.00,Wunderground v.1.15,2013-02-14 16:44:00,
2013-02-14 11:45:00,47.1,31.7,30.01,SE,131,0.0,4.0,55,0.00,,,0.00,Wunderground v.1.15,2013-02-14 16:45:00,
2013-02-14 11:46:00,47.2,31.8,30.01,WSW,255,2.0,4.0,55,0.00,,,0.00,Wunderground v.1.15,2013-02-14 16:46:00,
2013-02-14 11:48:00,47.3,31.9,30.00,ENE,65,2.0,4.0,55,0.00,,,0.00,Wunderground v.1.15,2013-02-14 16:48:00,
2013-02-14 11:49:00,47.3,32.4,30.01,NNW,336,3.0,4.0,56,0.00,,,0.00,Wunderground v.1.15,2013-02-14 16:49:00,
2013-02-14 11:50:00,47.3,31.9,30.01,NNW,328,1.0,2.0,55,0.00,,,0.00,Wunderground v.1.15,2013-02-14 16:50:00,
2013-02-14 11:51:00,47.3,31.9,30.01,NNW,338,1.0,2.0,55,0.00,,,0.00,Wunderground v.1.15,2013-02-14 16:51:00,
2013-02-14 11:54:00,47.4,31.6,30.01,ENE,76,0.0,2.0,54,0.00,,,0.00,Wunderground v.1.15,2013-02-14 16:54:00,
2013-02-14 11:55:00,47.5,32.1,30.01,WNW,297,1.0,2.0,55,0.00,,,0.00,Wunderground v.1.15,2013-02-14 16:55:00,
2013-02-14 11:56:00,47.5,32.1,30.01,West,278,0.0,2.0,55,0.00,,,0.00,Wunderground v.1.15,2013-02-14 16:56:00,
2013-02-14 11:59:00,47.6,31.8,30.01,NNW,345,0.0,2.0,54,0.00,,,0.00,Wunderground v.1.15,2013-02-14 16:59:00,
2013-02-14 12:00:00,47.7,32.3,30.01,NNW,344,0.0,1.0,55,0.00,,,0.00,Wunderground v.1.15,2013-02-14 17:00:00,
2013-02-14 12:01:00,47.7,31.9,30.01,NNE,24,2.0,2.0,54,0.00,,,0.00,Wunderground v.1.15,2013-02-14 17:01:00,
2013-02-14 12:04:00,47.9,32.5,30.01,NNW,334,2.0,4.0,55,0.00,,,0.00,Wunderground v.1.15,2013-02-14 17:04:00,
2013-02-14 12:05:00,48.0,32.1,30.01,North,10,1.0,4.0,54,0.00,,,0.00,Wunderground v.1.15,2013-02-14 17:05:00,
2013-02-14 12:06:00,48.0,32.6,30.01,NE,46,1.0,4.0,55,0.00,,,0.00,Wunderground v.1.15,2013-02-14 17:06:00,
2013-02-14 12:09:00,48.0,31.7,30.01,North,360,2.0,4.0,53,0.00,,,0.00,Wunderground v.1.15,2013-02-14 17:09:00,
2013-02-14 12:10:00,47.9,31.6,30.01,NNW,330,0.0,1.0,53,0.00,,,0.00,Wunderground v.1.15,2013-02-14 17:10:00,
2013-02-14 12:11:00,47.9,31.6,30.01,SW,233,0.0,1.0,53,0.00,,,0.00,Wunderground v.1.15,2013-02-14 17:11:00,
2013-02-14 12:14:00,47.9,32.0,30.01,SSW,204,1.0,1.0,54,0.00,,,0.00,Wunderground v.1.15,2013-02-14 17:14:00,
2013-02-14 12:15:00,48.0,32.1,30.00,SSW,201,1.0,1.0,54,0.00,,,0.00,Wunderground v.1.15,2013-02-14 17:15:00,
2013-02-14 12:16:00,48.2,32.8,30.00,SSW,201,0.0,1.0,55,0.00,,,0.00,Wunderground v.1.15,2013-02-14 17:16:00,
2013-02-14 12:19:00,48.5,33.1,30.00,East,89,2.0,3.0,55,0.00,,,0.00,Wunderground v.1.15,2013-02-14 17:19:00,
2013-02-14 12:20:00,48.7,33.7,30.00,West,276,0.0,2.0,56,0.00,,,0.00,Wunderground v.1.15,2013-02-14 17:20:00,
2013-02-14 12:21:00,48.7,33.7,30.00,West,276,0.0,2.0,56,0.00,,,0.00,Wunderground v.1.15,2013-02-14 17:21:00,
2013-02-14 12:24:00,49.1,33.2,30.01,South,188,1.0,3.0,54,0.00,,,0.00,Wunderground v.1.15,2013-02-14 17:24:00,
2013-02-14 12:25:00,49.2,32.3,30.01,South,187,1.0,3.0,52,0.00,,,0.00,Wunderground v.1.15,2013-02-14 17:25:00,
2013-02-14 12:26:00,49.2,32.3,30.01,South,187,2.0,3.0,52,0.00,,,0.00,Wunderground v.1.15,2013-02-14 17:26:00,
2013-02-14 12:27:00,49.2,32.3,30.01,SSW,195,2.0,3.0,52,0.00,,,0.00,Wunderground v.1.15,2013-02-14 17:27:00,
2013-02-14 12:29:00,49.1,32.2,30.01,SW,236,1.0,3.0,52,0.00,,,0.00,Wunderground v.1.15,2013-02-14 17:29:00,
2013-02-14 12:30:00,49.0,32.1,30.01,SSW,213,2.0,3.0,52,0.00,,,0.00,Wunderground v.1.15,2013-02-14 17:30:00,
2013-02-14 12:31:00,49.0,32.1,30.01,SW,214,1.0,3.0,52,0.00,,,0.00,Wunderground v.1.15,2013-02-14 17:31:00,
2013-02-14 12:32:00,48.9,31.5,30.01,SW,214,0.0,3.0,51,0.00,,,0.00,Wunderground v.1.15,2013-02-14 17:32:00,
2013-02-14 12:34:00,48.9,32.5,30.01,SSW,205,0.0,3.0,53,0.00,,,0.00,Wunderground v.1.15,2013-02-14 17:34:00,
2013-02-14 12:35:00,49.0,32.6,30.01,SW,231,2.0,3.0,53,0.00,,,0.00,Wunderground v.1.15,2013-02-14 17:35:00,
2013-02-14 12:36:00,49.0,32.6,30.01,SSW,200,2.0,3.0,53,0.00,,,0.00,Wunderground v.1.15,2013-02-14 17:36:00,
2013-02-14 12:37:00,49.1,33.2,30.01,West,270,2.0,4.0,54,0.00,,,0.00,Wunderground v.1.15,2013-02-14 17:37:00,
2013-02-14 12:39:00,49.3,32.9,30.01,East,98,1.0,4.0,53,0.00,,,0.00,Wunderground v.1.15,2013-02-14 17:39:00,
2013-02-14 12:41:00,49.4,33.0,30.00,SE,126,1.0,1.0,53,0.00,,,0.00,Wunderground v.1.15,2013-02-14 17:41:00,
2013-02-14 12:42:00,49.5,32.6,30.00,SSE,155,3.0,3.0,52,0.00,,,0.00,Wunderground v.1.15,2013-02-14 17:42:00,
2013-02-14 12:44:00,49.7,33.2,30.00,East,89,3.0,4.0,53,0.00,,,0.00,Wunderground v.1.15,2013-02-14 17:44:00,
2013-02-14 12:46:00,49.8,33.3,30.00,SE,128,1.0,4.0,53,0.00,,,0.00,Wunderground v.1.15,2013-02-14 17:46:00,
2013-02-14 12:47:00,49.9,33.4,30.00,SSW,193,2.0,4.0,53,0.00,,,0.00,Wunderground v.1.15,2013-02-14 17:47:00,
2013-02-14 12:49:00,50.0,33.1,30.00,SE,141,1.0,4.0,52,0.00,,,0.00,Wunderground v.1.15,2013-02-14 17:49:00,
2013-02-14 12:51:00,50.0,33.1,30.00,SW,217,5.0,5.0,52,0.00,,,0.00,Wunderground v.1.15,2013-02-14 17:51:00,
2013-02-14 12:52:00,49.9,32.0,30.00,SE,144,2.0,5.0,50,0.00,,,0.00,Wunderground v.1.15,2013-02-14 17:52:00,
2013-02-14 12:54:00,49.7,32.8,30.00,SE,128,0.0,5.0,52,0.00,,,0.00,Wunderground v.1.15,2013-02-14 17:54:00,
2013-02-14 12:56:00,49.7,32.3,30.00,SE,124,1.0,5.0,51,0.00,,,0.00,Wunderground v.1.15,2013-02-14 17:56:00,
2013-02-14 12:57:00,49.7,33.2,30.00,SE,129,2.0,5.0,53,0.00,,,0.00,Wunderground v.1.15,2013-02-14 17:57:00,
2013-02-14 13:00:00,49.8,32.4,30.00,South,190,1.0,5.0,51,0.00,,,0.00,Wunderground v.1.15,2013-02-14 18:00:00,
2013-02-14 13:01:00,49.8,32.4,29.99,ESE,103,1.0,2.0,51,0.00,,,0.00,Wunderground v.1.15,2013-02-14 18:01:00,
2013-02-14 13:03:00,49.9,33.0,29.99,SSW,193,3.0,4.0,52,0.00,,,0.00,Wunderground v.1.15,2013-02-14 18:03:00,
2013-02-14 13:05:00,49.6,31.7,30.00,SSW,203,3.0,5.0,50,0.00,,,0.00,Wunderground v.1.15,2013-02-14 18:05:00,
2013-02-14 13:06:00,49.5,31.6,30.00,SSW,207,2.0,5.0,50,0.00,,,0.00,Wunderground v.1.15,2013-02-14 18:06:00,
2013-02-14 13:08:00,49.3,31.9,29.99,WSW,257,2.0,5.0,51,0.00,,,0.00,Wunderground v.1.15,2013-02-14 18:08:00,
2013-02-14 13:10:00,49.3,32.9,29.99,East,96,1.0,2.0,53,0.00,,,0.00,Wunderground v.1.15,2013-02-14 18:10:00,
2013-02-14 13:11:00,49.4,33.4,29.99,ENE,70,2.0,3.0,54,0.00,,,0.00,Wunderground v.1.15,2013-02-14 18:11:00,
2013-02-14 13:12:00,49.5,33.1,29.99,North,352,0.0,3.0,53,0.00,,,0.00,Wunderground v.1.15,2013-02-14 18:12:00,
2013-02-14 13:14:00,49.6,32.7,29.99,SW,218,0.0,3.0,52,0.00,,,0.00,Wunderground v.1.15,2013-02-14 18:14:00,
2013-02-14 13:15:00,49.7,33.2,29.99,SSW,210,0.0,3.0,53,0.00,,,0.00,Wunderground v.1.15,2013-02-14 18:15:00,
2013-02-14 13:16:00,50.0,34.0,29.99,SSW,200,1.0,3.0,54,0.00,,,0.00,Wunderground v.1.15,2013-02-14 18:16:00,
2013-02-14 13:17:00,50.1,34.1,29.99,South,181,0.0,3.0,54,0.00,,,0.00,Wunderground v.1.15,2013-02-14 18:17:00,
2013-02-14 13:19:00,50.4,33.9,29.98,South,181,0.0,3.0,53,0.00,,,0.00,Wunderground v.1.15,2013-02-14 18:19:00,
2013-02-14 13:20:00,50.6,34.6,29.99,SW,218,0.0,1.0,54,0.00,,,0.00,Wunderground v.1.15,2013-02-14 18:20:00,
2013-02-14 13:21:00,50.9,34.4,29.98,SW,215,1.0,5.0,53,0.00,,,0.00,Wunderground v.1.15,2013-02-14 18:21:00,
2013-02-14 13:22:00,50.9,33.9,29.98,WNW,285,2.0,5.0,52,0.00,,,0.00,Wunderground v.1.15,2013-02-14 18:22:00,
2013-02-14 13:24:00,51.0,34.0,29.98,South,184,1.0,5.0,52,0.00,,,0.00,Wunderground v.1.15,2013-02-14 18:24:00,
2013-02-14 13:25:00,51.0,33.5,29.98,SW,236,1.0,5.0,51,0.00,,,0.00,Wunderground v.1.15,2013-02-14 18:25:00,
2013-02-14 13:26:00,51.0,34.0,29.98,SSW,193,1.0,5.0,52,0.00,,,0.00,Wunderground v.1.15,2013-02-14 18:26:00,
2013-02-14 13:27:00,51.0,33.5,29.98,SSW,208,1.0,5.0,51,0.00,,,0.00,Wunderground v.1.15,2013-02-14 18:27:00,
2013-02-14 13:29:00,51.0,34.0,29.98,WNW,283,1.0,5.0,52,0.00,,,0.00,Wunderground v.1.15,2013-02-14 18:29:00,
2013-02-14 13:30:00,51.1,34.1,29.98,SW,225,1.0,3.0,52,0.00,,,0.00,Wunderground v.1.15,2013-02-14 18:30:00,
2013-02-14 13:32:00,51.3,33.8,29.98,NW,306,1.0,3.0,51,0.00,,,0.00,Wunderground v.1.15,2013-02-14 18:32:00,
2013-02-14 13:33:00,51.3,33.3,29.98,WSW,257,2.0,3.0,50,0.00,,,0.00,Wunderground v.1.15,2013-02-14 18:33:00,
2013-02-14 13:34:00,51.2,33.7,29.98,SSW,198,2.0,4.0,51,0.00,,,0.00,Wunderground v.1.15,2013-02-14 18:34:00,
2013-02-14 13:35:00,51.1,33.6,29.98,ESE,121,0.0,4.0,51,0.00,,,0.00,Wunderground v.1.15,2013-02-14 18:35:00,
2013-02-14 13:37:00,51.1,34.1,29.97,West,269,2.0,4.0,52,0.00,,,0.00,Wunderground v.1.15,2013-02-14 18:37:00,
2013-02-14 13:38:00,51.1,33.6,29.97,West,269,1.0,4.0,51,0.00,,,0.00,Wunderground v.1.15,2013-02-14 18:38:00,
2013-02-14 13:39:00,51.1,33.6,29.97,West,273,0.0,4.0,51,0.00,,,0.00,Wunderground v.1.15,2013-02-14 18:39:00,
2013-02-14 13:40:00,51.1,34.1,29.97,SSW,200,3.0,3.0,52,0.00,,,0.00,Wunderground v.1.15,2013-02-14 18:40:00,
2013-02-14 13:42:00,51.0,33.5,29.97,WSW,238,3.0,4.0,51,0.00,,,0.00,Wunderground v.1.15,2013-02-14 18:42:00,
2013-02-14 13:43:00,51.0,33.5,29.97,ESE,116,1.0,4.0,51,0.00,,,0.00,Wunderground v.1.15,2013-02-14 18:43:00,
2013-02-14 13:44:00,51.0,34.0,29.97,SW,227,1.0,4.0,52,0.00,,,0.00,Wunderground v.1.15,2013-02-14 18:44:00,
2013-02-14 13:45:00,51.1,34.5,29.97,SSW,200,1.0,4.0,53,0.00,,,0.00,Wunderground v.1.15,2013-02-14 18:45:00,
2013-02-14 13:48:00,51.3,33.8,29.97,West,263,2.0,4.0,51,0.00,,,0.00,Wunderground v.1.15,2013-02-14 18:48:00,
2013-02-14 13:49:00,51.3,34.3,29.97,SSE,165,2.0,4.0,52,0.00,,,0.00,Wunderground v.1.15,2013-02-14 18:49:00,
2013-02-14 13:50:00,51.4,34.3,29.97,SSW,204,1.0,2.0,52,0.00,,,0.00,Wunderground v.1.15,2013-02-14 18:50:00,
2013-02-14 13:53:00,51.5,34.9,29.98,SW,214,4.0,4.0,53,0.00,,,0.00,Wunderground v.1.15,2013-02-14 18:53:00,
2013-02-14 13:54:00,51.5,34.0,29.98,SW,235,1.0,4.0,51,0.00,,,0.00,Wunderground v.1.15,2013-02-14 18:54:00,
2013-02-14 13:56:00,51.4,33.4,29.98,WSW,255,1.0,4.0,50,0.00,,,0.00,Wunderground v.1.15,2013-02-14 18:56:00,
2013-02-14 13:58:00,51.3,33.8,29.97,West,269,0.0,4.0,51,0.00,,,0.00,Wunderground v.1.15,2013-02-14 18:58:00,
2013-02-14 14:00:00,51.2,33.7,29.98,North,356,0.0,1.0,51,0.00,,,0.00,Wunderground v.1.15,2013-02-14 19:00:00,
2013-02-14 14:01:00,51.1,34.1,29.97,North,356,0.0,1.0,52,0.00,,,0.00,Wunderground v.1.15,2013-02-14 19:01:00,
2013-02-14 14:03:00,51.0,34.0,29.97,SW,236,1.0,3.0,52,0.00,,,0.00,Wunderground v.1.15,2013-02-14 19:03:00,
2013-02-14 14:04:00,51.1,34.5,29.97,South,179,1.0,3.0,53,0.00,,,0.00,Wunderground v.1.15,2013-02-14 19:04:00,
2013-02-14 14:05:00,51.0,34.5,29.97,South,172,1.0,3.0,53,0.00,,,0.00,Wunderground v.1.15,2013-02-14 19:05:00,
2013-02-14 14:06:00,51.0,34.0,29.97,SW,222,2.0,3.0,52,0.00,,,0.00,Wunderground v.1.15,2013-02-14 19:06:00,
2013-02-14 14:08:00,50.9,33.9,29.97,SW,215,1.0,3.0,52,0.00,,,0.00,Wunderground v.1.15,2013-02-14 19:08:00,
2013-02-14 14:09:00,50.8,33.8,29.97,SE,134,1.0,3.0,52,0.00,,,0.00,Wunderground v.1.15,2013-02-14 19:09:00,
2013-02-14 14:10:00,50.8,33.8,29.97,SW,229,1.0,1.0,52,0.00,,,0.00,Wunderground v.1.15,2013-02-14 19:10:00,
2013-02-14 14:11:00,50.7,33.7,29.97,SW,217,1.0,1.0,52,0.00,,,0.00,Wunderground v.1.15,2013-02-14 19:11:00,
2013-02-14 14:13:00,50.7,34.2,29.97,WSW,240,0.0,2.0,53,0.00,,,0.00,Wunderground v.1.15,2013-02-14 19:13:00,
2013-02-14 14:14:00,50.7,34.2,29.97,SSW,197,0.0,2.0,53,0.00,,,0.00,Wunderground v.1.15,2013-02-14 19:14:00,
2013-02-14 14:15:00,50.7,34.2,29.97,South,177,2.0,2.0,53,0.00,,,0.00,Wunderground v.1.15,2013-02-14 19:15:00,
2013-02-14 14:16:00,50.7,34.6,29.97,SW,229,5.0,5.0,54,0.00,,,0.00,Wunderground v.1.15,2013-02-14 19:16:00,
2013-02-14 14:18:00,50.7,34.2,29.97,SW,229,2.0,5.0,53,0.00,,,0.00,Wunderground v.1.15,2013-02-14 19:18:00,
2013-02-14 14:19:00,50.6,34.6,29.97,South,191,1.0,5.0,54,0.00,,,0.00,Wunderground v.1.15,2013-02-14 19:19:00,
2013-02-14 14:20:00,50.6,34.6,29.97,SW,226,1.0,3.0,54,0.00,,,0.00,Wunderground v.1.15,2013-02-14 19:20:00,
2013-02-14 14:21:00,50.6,34.6,29.97,South,181,2.0,3.0,54,0.00,,,0.00,Wunderground v.1.15,2013-02-14 19:21:00,
2013-02-14 14:23:00,50.7,34.2,29.97,SW,228,4.0,4.0,53,0.00,,,0.00,Wunderground v.1.15,2013-02-14 19:23:00,
2013-02-14 14:24:00,50.6,33.6,29.97,North,5,1.0,4.0,52,0.00,,,0.00,Wunderground v.1.15,2013-02-14 19:24:00,
2013-02-14 14:25:00,50.6,33.6,29.97,NNW,343,0.0,4.0,52,0.00,,,0.00,Wunderground v.1.15,2013-02-14 19:25:00,
2013-02-14 14:27:00,50.5,34.0,29.97,West,267,1.0,4.0,53,0.00,,,0.00,Wunderground v.1.15,2013-02-14 19:27:00,
2013-02-14 14:28:00,50.5,34.0,29.97,South,191,0.0,4.0,53,0.00,,,0.00,Wunderground v.1.15,2013-02-14 19:28:00,
2013-02-14 14:30:00,50.6,34.6,29.96,WSW,255,2.0,2.0,54,0.00,,,0.00,Wunderground v.1.15,2013-02-14 19:30:00,
2013-02-14 14:31:00,50.7,34.6,29.96,SW,233,2.0,2.0,54,0.00,,,0.00,Wunderground v.1.15,2013-02-14 19:31:00,
2013-02-14 14:32:00,50.8,34.7,29.96,SW,219,3.0,3.0,54,0.00,,,0.00,Wunderground v.1.15,2013-02-14 19:32:00,
2013-02-14 14:33:00,50.8,34.3,29.96,SW,217,2.0,3.0,53,0.00,,,0.00,Wunderground v.1.15,2013-02-14 19:33:00,
2013-02-14 14:35:00,50.9,34.4,29.96,SW,221,1.0,3.0,53,0.00,,,0.00,Wunderground v.1.15,2013-02-14 19:35:00,
2013-02-14 14:36:00,51.0,34.5,29.97,WSW,250,4.0,5.0,53,0.00,,,0.00,Wunderground v.1.15,2013-02-14 19:36:00,
2013-02-14 14:37:00,51.0,34.0,29.97,SSW,208,2.0,5.0,52,0.00,,,0.00,Wunderground v.1.15,2013-02-14 19:37:00,
2013-02-14 14:38:00,51.0,34.0,29.97,SW,235,2.0,5.0,52,0.00,,,0.00,Wunderground v.1.15,2013-02-14 19:38:00,
2013-02-14 14:40:00,51.0,34.0,29.97,WSW,248,2.0,2.0,52,0.00,,,0.00,Wunderground v.1.15,2013-02-14 19:40:00,
2013-02-14 14:41:00,51.0,33.5,29.97,SSW,198,2.0,3.0,51,0.00,,,0.00,Wunderground v.1.15,2013-02-14 19:41:00,
2013-02-14 14:42:00,51.0,34.0,29.97,SSW,193,3.0,3.0,52,0.00,,,0.00,Wunderground v.1.15,2013-02-14 19:42:00,
2013-02-14 14:43:00,51.0,33.5,29.97,SSW,198,2.0,5.0,51,0.00,,,0.00,Wunderground v.1.15,2013-02-14 19:43:00,
2013-02-14 14:45:00,50.9,33.9,29.97,SSW,205,0.0,5.0,52,0.00,,,0.00,Wunderground v.1.15,2013-02-14 19:45:00,
2013-02-14 14:46:00,51.0,34.0,29.97,SSW,208,0.0,5.0,52,0.00,,,0.00,Wunderground v.1.15,2013-02-14 19:46:00,
2013-02-14 14:47:00,51.1,35.0,29.97,South,190,0.0,5.0,54,0.00,,,0.00,Wunderground v.1.15,2013-02-14 19:47:00,
2013-02-14 14:48:00,51.1,34.5,29.97,South,190,0.0,5.0,53,0.00,,,0.00,Wunderground v.1.15,2013-02-14 19:48:00,
2013-02-14 14:50:00,51.4,33.9,29.97,SSE,152,2.0,4.0,51,0.00,,,0.00,Wunderground v.1.15,2013-02-14 19:50:00,
2013-02-14 14:52:00,51.4,33.9,29.97,SSW,207,2.0,4.0,51,0.00,,,0.00,Wunderground v.1.15,2013-02-14 19:52:00,
2013-02-14 14:53:00,51.4,33.9,29.97,WSW,239,2.0,4.0,51,0.00,,,0.00,Wunderground v.1.15,2013-02-14 19:53:00,
2013-02-14 14:56:00,51.5,34.4,29.97,South,177,2.0,4.0,52,0.00,,,0.00,Wunderground v.1.15,2013-02-14 19:56:00,
2013-02-14 14:57:00,51.6,34.0,29.97,SW,215,1.0,4.0,51,0.00,,,0.00,Wunderground v.1.15,2013-02-14 19:57:00,
2013-02-14 14:58:00,51.6,33.6,29.97,SW,231,1.0,4.0,50,0.00,,,0.00,Wunderground v.1.15,2013-02-14 19:58:00,
2013-02-14 15:01:00,51.4,33.9,29.97,SW,226,3.0,3.0,51,0.00,,,0.00,Wunderground v.1.15,2013-02-14 20:01:00,
2013-02-14 15:02:00,51.4,33.9,29.96,NNE,22,1.0,3.0,51,0.00,,,0.00,Wunderground v.1.15,2013-02-14 20:02:00,
2013-02-14 15:03:00,51.4,33.9,29.96,NE,53,0.0,3.0,51,0.00,,,0.00,Wunderground v.1.15,2013-02-14 20:03:00,
2013-02-14 15:06:00,51.3,33.8,29.96,NE,44,1.0,3.0,51,0.00,,,0.00,Wunderground v.1.15,2013-02-14 20:06:00,
2013-02-14 15:07:00,51.4,33.9,29.96,WSW,257,1.0,3.0,51,0.00,,,0.00,Wunderground v.1.15,2013-02-14 20:07:00,
2013-02-14 15:08:00,51.4,34.3,29.96,SSW,203,2.0,3.0,52,0.00,,,0.00,Wunderground v.1.15,2013-02-14 20:08:00,
2013-02-14 15:09:00,51.5,34.4,29.96,South,183,3.0,3.0,52,0.00,,,0.00,Wunderground v.1.15,2013-02-14 20:09:00,
2013-02-14 15:11:00,51.4,32.9,29.96,SSW,193,2.0,4.0,49,0.00,,,0.00,Wunderground v.1.15,2013-02-14 20:11:00,
2013-02-14 15:12:00,51.3,32.8,29.96,SSW,193,0.0,4.0,49,0.00,,,0.00,Wunderground v.1.15,2013-02-14 20:12:00,
2013-02-14 15:13:00,51.3,33.3,29.97,SSW,193,0.0,4.0,50,0.00,,,0.00,Wunderground v.1.15,2013-02-14 20:13:00,
2013-02-14 15:14:00,51.2,33.7,29.96,SSW,193,0.0,4.0,51,0.00,,,0.00,Wunderground v.1.15,2013-02-14 20:14:00,
2013-02-14 15:16:00,51.2,33.2,29.97,SW,233,1.0,4.0,50,0.00,,,0.00,Wunderground v.1.15,2013-02-14 20:16:00,
2013-02-14 15:17:00,51.2,33.2,29.97,SW,233,0.0,4.0,50,0.00,,,0.00,Wunderground v.1.15,2013-02-14 20:17:00,
2013-02-14 15:18:00,51.2,33.2,29.96,SW,224,0.0,4.0,50,0.00,,,0.00,Wunderground v.1.15,2013-02-14 20:18:00,
2013-02-14 15:19:00,51.2,33.2,29.96,SW,224,0.0,4.0,50,0.00,,,0.00,Wunderground v.1.15,2013-02-14 20:19:00,
2013-02-14 15:22:00,51.3,33.3,29.96,SW,226,0.0,1.0,50,0.00,,,0.00,Wunderground v.1.15,2013-02-14 20:22:00,
2013-02-14 15:23:00,51.3,33.8,29.96,SSW,200,0.0,1.0,51,0.00,,,0.00,Wunderground v.1.15,2013-02-14 20:23:00,
2013-02-14 15:24:00,51.4,34.3,29.97,South,184,0.0,2.0,52,0.00,,,0.00,Wunderground v.1.15,2013-02-14 20:24:00,
2013-02-14 15:27:00,51.5,34.0,29.96,WSW,255,1.0,2.0,51,0.00,,,0.00,Wunderground v.1.15,2013-02-14 20:27:00,
2013-02-14 15:28:00,51.5,34.0,29.96,SW,235,0.0,2.0,51,0.00,,,0.00,Wunderground v.1.15,2013-02-14 20:28:00,
2013-02-14 15:29:00,51.5,34.4,29.97,SSW,208,0.0,2.0,52,0.00,,,0.00,Wunderground v.1.15,2013-02-14 20:29:00,
2013-02-14 15:32:00,51.6,34.0,29.97,SW,218,0.0,1.0,51,0.00,,,0.00,Wunderground v.1.15,2013-02-14 20:32:00,
2013-02-14 15:33:00,51.6,34.0,29.97,WSW,238,0.0,1.0,51,0.00,,,0.00,Wunderground v.1.15,2013-02-14 20:33:00,
2013-02-14 15:35:00,51.6,34.0,29.97,SSW,203,1.0,1.0,51,0.00,,,0.00,Wunderground v.1.15,2013-02-14 20:35:00,
2013-02-14 15:37:00,51.6,34.0,29.97,South,181,0.0,2.0,51,0.00,,,0.00,Wunderground v.1.15,2013-02-14 20:37:00,
2013-02-14 15:39:00,51.4,33.4,29.97,SSW,203,1.0,3.0,50,0.00,,,0.00,Wunderground v.1.15,2013-02-14 20:39:00,
2013-02-14 15:40:00,51.4,33.4,29.97,SSW,203,0.0,3.0,50,0.00,,,0.00,Wunderground v.1.15,2013-02-14 20:40:00,
2013-02-14 15:42:00,51.4,33.9,29.96,SSW,210,1.0,1.0,51,0.00,,,0.00,Wunderground v.1.15,2013-02-14 20:42:00,
2013-02-14 15:44:00,51.4,33.9,29.97,SW,216,0.0,1.0,51,0.00,,,0.00,Wunderground v.1.15,2013-02-14 20:44:00,
2013-02-14 15:45:00,51.4,33.9,29.96,SW,217,0.0,1.0,51,0.00,,,0.00,Wunderground v.1.15,2013-02-14 20:45:00,
2013-02-14 15:47:00,51.4,33.9,29.96,West,262,1.0,3.0,51,0.00,,,0.00,Wunderground v.1.15,2013-02-14 20:47:00,
2013-02-14 15:49:00,51.5,34.0,29.97,SW,222,0.0,3.0,51,0.00,,,0.00,Wunderground v.1.15,2013-02-14 20:49:00,
2013-02-14 15:50:00,51.5,34.0,29.97,SE,136,0.0,1.0,51,0.00,,,0.00,Wunderground v.1.15,2013-02-14 20:50:00,
2013-02-14 15:52:00,51.5,33.0,29.97,SSW,207,0.0,1.0,49,0.00,,,0.00,Wunderground v.1.15,2013-02-14 20:52:00,
2013-02-14 15:53:00,51.6,33.6,29.97,SSW,207,0.0,1.0,50,0.00,,,0.00,Wunderground v.1.15,2013-02-14 20:53:00,
2013-02-14 15:54:00,51.6,33.6,29.97,WSW,247,2.0,2.0,50,0.00,,,0.00,Wunderground v.1.15,2013-02-14 20:54:00,
2013-02-14 15:55:00,51.5,33.5,29.97,WNW,283,0.0,2.0,50,0.00,,,0.00,Wunderground v.1.15,2013-02-14 20:55:00,
2013-02-14 15:57:00,51.5,34.0,29.97,WNW,284,0.0,2.0,51,0.00,,,0.00,Wunderground v.1.15,2013-02-14 20:57:00,
2013-02-14 15:58:00,51.5,33.5,29.97,West,277,0.0,2.0,50,0.00,,,0.00,Wunderground v.1.15,2013-02-14 20:58:00,
2013-02-14 15:59:00,51.5,33.5,29.97,SSW,203,2.0,2.0,50,0.00,,,0.00,Wunderground v.1.15,2013-02-14 20:59:00,
2013-02-14 16:01:00,51.4,33.4,29.97,SSW,203,1.0,1.0,50,0.00,,,0.00,Wunderground v.1.15,2013-02-14 21:01:00,
2013-02-14 16:02:00,51.3,33.3,29.96,SSW,208,0.0,1.0,50,0.00,,,0.00,Wunderground v.1.15,2013-02-14 21:02:00,
2013-02-14 16:03:00,51.3,33.8,29.96,WNW,293,2.0,2.0,51,0.00,,,0.00,Wunderground v.1.15,2013-02-14 21:03:00,
2013-02-14 16:04:00,51.2,33.2,29.96,South,170,1.0,3.0,50,0.00,,,0.00,Wunderground v.1.15,2013-02-14 21:04:00,
2013-02-14 16:06:00,51.2,33.7,29.96,SSW,195,0.0,3.0,51,0.00,,,0.00,Wunderground v.1.15,2013-02-14 21:06:00,
2013-02-14 16:07:00,51.2,34.2,29.96,SSW,195,0.0,3.0,52,0.00,,,0.00,Wunderground v.1.15,2013-02-14 21:07:00,
2013-02-14 16:08:00,51.2,34.2,29.96,SSW,195,0.0,3.0,52,0.00,,,0.00,Wunderground v.1.15,2013-02-14 21:08:00,
2013-02-14 16:09:00,51.2,34.2,29.96,SSW,195,0.0,3.0,52,0.00,,,0.00,Wunderground v.1.15,2013-02-14 21:09:00,
2013-02-14 16:11:00,51.2,33.7,29.96,SSW,198,0.0,1.0,51,0.00,,,0.00,Wunderground v.1.15,2013-02-14 21:11:00,
2013-02-14 16:13:00,51.2,33.2,29.96,SSE,158,0.0,2.0,50,0.00,,,0.00,Wunderground v.1.15,2013-02-14 21:13:00,
2013-02-14 16:14:00,51.1,33.6,29.96,SSW,203,1.0,2.0,51,0.00,,,0.00,Wunderground v.1.15,2013-02-14 21:14:00,
2013-02-14 16:16:00,51.2,34.2,29.96,WSW,247,1.0,2.0,52,0.00,,,0.00,Wunderground v.1.15,2013-02-14 21:16:00,
2013-02-14 16:18:00,51.1,34.1,29.97,SW,217,1.0,2.0,52,0.00,,,0.00,Wunderground v.1.15,2013-02-14 21:18:00,
2013-02-14 16:19:00,51.1,33.6,29.97,SSW,197,2.0,2.0,51,0.00,,,0.00,Wunderground v.1.15,2013-02-14 21:19:00,
2013-02-14 16:20:00,51.0,33.5,29.97,SSW,200,1.0,1.0,51,0.00,,,0.00,Wunderground v.1.15,2013-02-14 21:20:00,
2013-02-14 16:21:00,51.0,33.5,29.97,SSW,210,2.0,3.0,51,0.00,,,0.00,Wunderground v.1.15,2013-02-14 21:21:00,
2013-02-14 16:23:00,50.9,33.4,29.97,SSW,207,1.0,3.0,51,0.00,,,0.00,Wunderground v.1.15,2013-02-14 21:23:00,
2013-02-14 16:24:00,50.9,33.9,29.97,SW,217,1.0,3.0,52,0.00,,,0.00,Wunderground v.1.15,2013-02-14 21:24:00,
2013-02-14 16:25:00,50.9,33.9,29.97,SW,221,1.0,3.0,52,0.00,,,0.00,Wunderground v.1.15,2013-02-14 21:25:00,
2013-02-14 16:26:00,50.9,33.4,29.97,SW,229,0.0,3.0,51,0.00,,,0.00,Wunderground v.1.15,2013-02-14 21:26:00,
2013-02-14 16:28:00,50.9,33.4,29.97,SSW,213,1.0,3.0,51,0.00,,,0.00,Wunderground v.1.15,2013-02-14 21:28:00,
2013-02-14 16:29:00,50.9,33.4,29.97,SW,229,1.0,3.0,51,0.00,,,0.00,Wunderground v.1.15,2013-02-14 21:29:00,
2013-02-14 16:30:00,50.9,33.4,29.97,WSW,243,1.0,1.0,51,0.00,,,0.00,Wunderground v.1.15,2013-02-14 21:30:00,
2013-02-14 16:31:00,50.9,33.4,29.96,SW,228,0.0,1.0,51,0.00,,,0.00,Wunderground v.1.15,2013-02-14 21:31:00,
2013-02-14 16:33:00,50.9,34.4,29.97,SSW,210,1.0,3.0,53,0.00,,,0.00,Wunderground v.1.15,2013-02-14 21:33:00,
2013-02-14 16:34:00,50.9,33.4,29.96,SSW,193,2.0,3.0,51,0.00,,,0.00,Wunderground v.1.15,2013-02-14 21:34:00,
2013-02-14 16:35:00,50.8,33.8,29.97,SSW,198,1.0,3.0,52,0.00,,,0.00,Wunderground v.1.15,2013-02-14 21:35:00,
2013-02-14 16:36:00,50.8,34.3,29.97,SSW,193,1.0,3.0,53,0.00,,,0.00,Wunderground v.1.15,2013-02-14 21:36:00,
2013-02-14 16:39:00,50.7,33.7,29.97,SSW,204,1.0,3.0,52,0.00,,,0.00,Wunderground v.1.15,2013-02-14 21:39:00,
2013-02-14 16:40:00,50.7,33.7,29.97,SW,219,1.0,3.0,52,0.00,,,0.00,Wunderground v.1.15,2013-02-14 21:40:00,
2013-02-14 16:42:00,50.6,33.6,29.97,SW,219,0.0,2.0,52,0.00,,,0.00,Wunderground v.1.15,2013-02-14 21:42:00,
2013-02-14 16:44:00,50.5,34.5,29.97,SSW,212,0.0,2.0,54,0.00,,,0.00,Wunderground v.1.15,2013-02-14 21:44:00,
2013-02-14 16:45:00,50.5,34.0,29.96,SSW,212,1.0,2.0,53,0.00,,,0.00,Wunderground v.1.15,2013-02-14 21:45:00,
2013-02-14 16:47:00,50.4,33.9,29.96,SSW,205,2.0,2.0,53,0.00,,,0.00,Wunderground v.1.15,2013-02-14 21:47:00,
2013-02-14 16:49:00,50.4,33.9,29.96,SSW,208,0.0,3.0,53,0.00,,,0.00,Wunderground v.1.15,2013-02-14 21:49:00,
2013-02-14 16:50:00,50.3,33.8,29.96,SSW,207,0.0,1.0,53,0.00,,,0.00,Wunderground v.1.15,2013-02-14 21:50:00,
2013-02-14 16:51:00,50.3,33.8,29.96,SSW,208,1.0,1.0,53,0.00,,,0.00,Wunderground v.1.15,2013-02-14 21:51:00,
2013-02-14 16:52:00,50.3,33.8,29.96,SSW,207,0.0,1.0,53,0.00,,,0.00,Wunderground v.1.15,2013-02-14 21:52:00,
2013-02-14 16:54:00,50.3,34.3,29.96,SW,215,0.0,1.0,54,0.00,,,0.00,Wunderground v.1.15,2013-02-14 21:54:00,
2013-02-14 16:55:00,50.3,34.3,29.96,SSW,203,0.0,1.0,54,0.00,,,0.00,Wunderground v.1.15,2013-02-14 21:55:00,
2013-02-14 16:56:00,50.3,34.3,29.96,SW,217,1.0,2.0,54,0.00,,,0.00,Wunderground v.1.15,2013-02-14 21:56:00,
2013-02-14 16:57:00,50.2,34.2,29.96,SSW,199,0.0,2.0,54,0.00,,,0.00,Wunderground v.1.15,2013-02-14 21:57:00,
2013-02-14 16:59:00,50.2,34.2,29.96,SSW,204,1.0,2.0,54,0.00,,,0.00,Wunderground v.1.15,2013-02-14 21:59:00,
2013-02-14 17:00:00,50.1,33.6,29.96,SSW,204,0.0,1.0,53,0.00,,,0.00,Wunderground v.1.15,2013-02-14 22:00:00,
2013-02-14 17:01:00,50.1,34.1,29.96,SSW,204,0.0,1.0,54,0.00,,,0.00,Wunderground v.1.15,2013-02-14 22:01:00,
2013-02-14 17:02:00,50.0,34.0,29.96,SSW,204,0.0,1.0,54,0.00,,,0.00,Wunderground v.1.15,2013-02-14 22:02:00,
2013-02-14 17:04:00,50.0,34.5,29.96,SSW,204,0.0,1.0,55,0.00,,,0.00,Wunderground v.1.15,2013-02-14 22:04:00,
2013-02-14 17:05:00,50.0,34.5,29.96,SSW,205,0.0,1.0,55,0.00,,,0.00,Wunderground v.1.15,2013-02-14 22:05:00,
2013-02-14 17:06:00,50.0,34.5,29.96,SSW,205,0.0,1.0,55,0.00,,,0.00,Wunderground v.1.15,2013-02-14 22:06:00,
2013-02-14 17:07:00,49.9,34.4,29.96,SSW,212,1.0,1.0,55,0.00,,,0.00,Wunderground v.1.15,2013-02-14 22:07:00,
2013-02-14 17:09:00,49.9,33.9,29.96,SSW,207,1.0,2.0,54,0.00,,,0.00,Wunderground v.1.15,2013-02-14 22:09:00,
2013-02-14 17:10:00,49.8,33.8,29.96,SSW,208,1.0,1.0,54,0.00,,,0.00,Wunderground v.1.15,2013-02-14 22:10:00,
2013-02-14 17:11:00,49.8,34.3,29.96,SSW,208,1.0,1.0,55,0.00,,,0.00,Wunderground v.1.15,2013-02-14 22:11:00,
2013-02-14 17:13:00,49.7,34.2,29.96,SSW,212,1.0,2.0,55,0.00,,,0.00,Wunderground v.1.15,2013-02-14 22:13:00,
2013-02-14 17:14:00,49.6,34.1,29.96,SSW,210,2.0,2.0,55,0.00,,,0.00,Wunderground v.1.15,2013-02-14 22:14:00,
2013-02-14 17:15:00,49.6,34.1,29.96,SSW,210,1.0,2.0,55,0.00,,,0.00,Wunderground v.1.15,2013-02-14 22:15:00,
2013-02-14 17:16:00,49.6,34.1,29.96,SSW,208,0.0,2.0,55,0.00,,,0.00,Wunderground v.1.15,2013-02-14 22:16:00,
2013-02-14 17:18:00,49.5,34.0,29.96,SSW,208,1.0,2.0,55,0.00,,,0.00,Wunderground v.1.15,2013-02-14 22:18:00,
2013-02-14 17:19:00,49.5,34.4,29.96,SSW,207,0.0,2.0,56,0.00,,,0.00,Wunderground v.1.15,2013-02-14 22:19:00,
2013-02-14 17:20:00,49.4,34.3,29.96,SSW,212,1.0,1.0,56,0.00,,,0.00,Wunderground v.1.15,2013-02-14 22:20:00,
2013-02-14 17:21:00,49.4,34.3,29.96,SSW,212,0.0,1.0,56,0.00,,,0.00,Wunderground v.1.15,2013-02-14 22:21:00,
2013-02-14 17:23:00,49.4,34.3,29.97,SSW,211,1.0,1.0,56,0.00,,,0.00,Wunderground v.1.15,2013-02-14 22:23:00,
2013-02-14 17:24:00,49.3,34.3,29.97,SSW,207,0.0,1.0,56,0.00,,,0.00,Wunderground v.1.15,2013-02-14 22:24:00,
2013-02-14 17:26:00,49.3,34.3,29.97,SSW,208,0.0,1.0,56,0.00,,,0.00,Wunderground v.1.15,2013-02-14 22:26:00,
2013-02-14 17:28:00,49.2,34.2,29.97,SSW,208,0.0,1.0,56,0.00,,,0.00,Wunderground v.1.15,2013-02-14 22:28:00,
2013-02-14 17:29:00,49.1,34.5,29.97,SSW,208,0.0,1.0,57,0.00,,,0.00,Wunderground v.1.15,2013-02-14 22:29:00,
2013-02-14 17:31:00,49.1,34.5,29.97,SSW,208,0.0,0.0,57,0.00,,,0.00,Wunderground v.1.15,2013-02-14 22:31:00,
2013-02-14 17:32:00,49.0,34.4,29.97,SSW,208,0.0,0.0,57,0.00,,,0.00,Wunderground v.1.15,2013-02-14 22:32:00,
2013-02-14 17:33:00,49.0,34.4,29.97,SSW,208,0.0,0.0,57,0.00,,,0.00,Wunderground v.1.15,2013-02-14 22:33:00,
2013-02-14 17:35:00,48.9,34.3,29.97,SSW,208,0.0,0.0,57,0.00,,,0.00,Wunderground v.1.15,2013-02-14 22:35:00,
2013-02-14 17:36:00,48.8,34.7,29.97,SSW,208,0.0,0.0,58,0.00,,,0.00,Wunderground v.1.15,2013-02-14 22:36:00,
2013-02-14 17:37:00,48.7,34.6,29.97,SSW,207,0.0,0.0,58,0.00,,,0.00,Wunderground v.1.15,2013-02-14 22:37:00,
2013-02-14 17:38:00,48.7,34.6,29.97,SSW,208,0.0,0.0,58,0.00,,,0.00,Wunderground v.1.15,2013-02-14 22:38:00,
2013-02-14 17:40:00,48.6,34.9,29.97,SSW,208,0.0,0.0,59,0.00,,,0.00,Wunderground v.1.15,2013-02-14 22:40:00,
2013-02-14 17:41:00,48.6,34.9,29.97,SSW,208,0.0,0.0,59,0.00,,,0.00,Wunderground v.1.15,2013-02-14 22:41:00,
2013-02-14 17:42:00,48.5,34.8,29.97,SSW,208,0.0,0.0,59,0.00,,,0.00,Wunderground v.1.15,2013-02-14 22:42:00,
2013-02-14 17:43:00,48.4,34.7,29.97,SSW,208,0.0,0.0,59,0.00,,,0.00,Wunderground v.1.15,2013-02-14 22:43:00,
2013-02-14 17:45:00,48.3,35.0,29.97,SSW,208,0.0,0.0,60,0.00,,,0.00,Wunderground v.1.15,2013-02-14 22:45:00,
2013-02-14 17:46:00,48.2,35.4,29.97,SSW,208,0.0,0.0,61,0.00,,,0.00,Wunderground v.1.15,2013-02-14 22:46:00,
2013-02-14 17:47:00,48.1,35.3,29.97,SSW,208,0.0,0.0,61,0.00,,,0.00,Wunderground v.1.15,2013-02-14 22:47:00,
2013-02-14 17:48:00,48.1,34.9,29.97,SSW,208,0.0,0.0,60,0.00,,,0.00,Wunderground v.1.15,2013-02-14 22:48:00,
2013-02-14 17:50:00,47.9,34.7,29.97,SSW,208,0.0,0.0,60,0.00,,,0.00,Wunderground v.1.15,2013-02-14 22:50:00,
2013-02-14 17:51:00,47.8,34.6,29.97,SSW,208,0.0,0.0,60,0.00,,,0.00,Wunderground v.1.15,2013-02-14 22:51:00,
2013-02-14 17:52:00,47.7,35.3,29.97,SSW,208,0.0,0.0,62,0.00,,,0.00,Wunderground v.1.15,2013-02-14 22:52:00,
2013-02-14 17:53:00,47.6,35.2,29.97,SSW,208,0.0,0.0,62,0.00,,,0.00,Wunderground v.1.15,2013-02-14 22:53:00,
2013-02-14 17:55:00,47.5,35.1,29.97,SSW,208,0.0,0.0,62,0.00,,,0.00,Wunderground v.1.15,2013-02-14 22:55:00,
2013-02-14 17:56:00,47.4,35.0,29.97,SSW,208,0.0,0.0,62,0.00,,,0.00,Wunderground v.1.15,2013-02-14 22:56:00,
2013-02-14 17:57:00,47.3,34.9,29.97,SSW,208,0.0,0.0,62,0.00,,,0.00,Wunderground v.1.15,2013-02-14 22:57:00,
2013-02-14 17:58:00,47.2,35.2,29.97,SSW,207,0.0,0.0,63,0.00,,,0.00,Wunderground v.1.15,2013-02-14 22:58:00,
2013-02-14 18:00:00,47.0,35.4,29.97,SSW,208,0.0,0.0,64,0.00,,,0.00,Wunderground v.1.15,2013-02-14 23:00:00,
2013-02-14 18:01:00,46.9,35.4,29.97,SSW,208,0.0,0.0,64,0.00,,,0.00,Wunderground v.1.15,2013-02-14 23:01:00,
2013-02-14 18:02:00,46.8,35.3,29.97,SSW,208,0.0,0.0,64,0.00,,,0.00,Wunderground v.1.15,2013-02-14 23:02:00,
2013-02-14 18:03:00,46.7,35.6,29.98,SSW,208,0.0,0.0,65,0.00,,,0.00,Wunderground v.1.15,2013-02-14 23:03:00,
2013-02-14 18:05:00,46.5,35.7,29.98,SSW,208,0.0,0.0,66,0.00,,,0.00,Wunderground v.1.15,2013-02-14 23:05:00,
2013-02-14 18:07:00,46.4,35.7,29.98,SSW,208,0.0,0.0,66,0.00,,,0.00,Wunderground v.1.15,2013-02-14 23:07:00,
2013-02-14 18:09:00,46.2,35.5,29.97,SSW,208,0.0,0.0,66,0.00,,,0.00,Wunderground v.1.15,2013-02-14 23:09:00,
2013-02-14 18:11:00,46.0,35.7,29.98,SSW,208,0.0,0.0,67,0.00,,,0.00,Wunderground v.1.15,2013-02-14 23:11:00,
2013-02-14 18:12:00,45.9,35.6,29.98,SSW,208,0.0,0.0,67,0.00,,,0.00,Wunderground v.1.15,2013-02-14 23:12:00,
2013-02-14 18:14:00,45.7,35.7,29.97,SSW,208,0.0,0.0,68,0.00,,,0.00,Wunderground v.1.15,2013-02-14 23:14:00,
2013-02-14 18:16:00,45.5,35.5,29.97,SSW,208,0.0,0.0,68,0.00,,,0.00,Wunderground v.1.15,2013-02-14 23:16:00,
2013-02-14 18:17:00,45.5,35.5,29.97,SSW,208,0.0,0.0,68,0.00,,,0.00,Wunderground v.1.15,2013-02-14 23:17:00,
2013-02-14 18:18:00,45.4,35.5,29.97,SSW,208,0.0,0.0,68,0.00,,,0.00,Wunderground v.1.15,2013-02-14 23:18:00,
2013-02-14 18:19:00,45.3,35.7,29.97,SSW,208,0.0,0.0,69,0.00,,,0.00,Wunderground v.1.15,2013-02-14 23:19:00,
2013-02-14 18:21:00,45.1,35.5,29.97,SSW,208,0.0,0.0,69,0.00,,,0.00,Wunderground v.1.15,2013-02-14 23:21:00,
2013-02-14 18:22:00,45.1,35.5,29.97,SSW,208,0.0,0.0,69,0.00,,,0.00,Wunderground v.1.15,2013-02-14 23:22:00,
2013-02-14 18:23:00,45.0,35.4,29.97,SSW,208,0.0,0.0,69,0.00,,,0.00,Wunderground v.1.15,2013-02-14 23:23:00,
2013-02-14 18:24:00,45.0,35.4,29.98,SSW,208,0.0,0.0,69,0.00,,,0.00,Wunderground v.1.15,2013-02-14 23:24:00,
2013-02-14 18:26:00,44.9,35.3,29.97,SSW,208,0.0,0.0,69,0.00,,,0.00,Wunderground v.1.15,2013-02-14 23:26:00,
2013-02-14 18:27:00,44.9,35.7,29.97,SSW,208,0.0,0.0,70,0.00,,,0.00,Wunderground v.1.15,2013-02-14 23:27:00,
2013-02-14 18:28:00,44.8,35.6,29.97,SSW,208,0.0,0.0,70,0.00,,,0.00,Wunderground v.1.15,2013-02-14 23:28:00,
2013-02-14 18:29:00,44.8,35.6,29.97,SSW,207,0.0,0.0,70,0.00,,,0.00,Wunderground v.1.15,2013-02-14 23:29:00,
2013-02-14 18:32:00,44.7,35.5,29.97,SSW,209,0.0,0.0,70,0.00,,,0.00,Wunderground v.1.15,2013-02-14 23:32:00,
2013-02-14 18:33:00,44.6,35.4,29.97,SSW,208,0.0,0.0,70,0.00,,,0.00,Wunderground v.1.15,2013-02-14 23:33:00,
2013-02-14 18:34:00,44.5,35.3,29.97,SSW,208,0.0,0.0,70,0.00,,,0.00,Wunderground v.1.15,2013-02-14 23:34:00,
2013-02-14 18:35:00,44.5,35.3,29.97,SSW,208,0.0,0.0,70,0.00,,,0.00,Wunderground v.1.15,2013-02-14 23:35:00,
2013-02-14 18:37:00,44.3,35.5,29.97,SSW,208,0.0,0.0,71,0.00,,,0.00,Wunderground v.1.15,2013-02-14 23:37:00,
2013-02-14 18:38:00,44.3,35.5,29.97,SSW,208,0.0,0.0,71,0.00,,,0.00,Wunderground v.1.15,2013-02-14 23:38:00,
2013-02-14 18:39:00,44.2,35.4,29.97,SSW,208,0.0,0.0,71,0.00,,,0.00,Wunderground v.1.15,2013-02-14 23:39:00,
2013-02-14 18:40:00,44.1,35.3,29.97,SSW,208,0.0,0.0,71,0.00,,,0.00,Wunderground v.1.15,2013-02-14 23:40:00,
2013-02-14 18:42:00,44.0,35.2,29.97,SSW,208,0.0,0.0,71,0.00,,,0.00,Wunderground v.1.15,2013-02-14 23:42:00,
2013-02-14 18:43:00,44.0,35.6,29.98,SSW,209,0.0,0.0,72,0.00,,,0.00,Wunderground v.1.15,2013-02-14 23:43:00,
2013-02-14 18:44:00,43.9,35.5,29.98,SSW,208,0.0,0.0,72,0.00,,,0.00,Wunderground v.1.15,2013-02-14 23:44:00,
2013-02-14 18:45:00,43.8,35.4,29.98,SSW,207,0.0,0.0,72,0.00,,,0.00,Wunderground v.1.15,2013-02-14 23:45:00,
2013-02-14 18:47:00,43.7,35.3,29.98,SSW,208,0.0,0.0,72,0.00,,,0.00,Wunderground v.1.15,2013-02-14 23:47:00,
2013-02-14 18:48:00,43.6,35.5,29.98,SSW,208,0.0,0.0,73,0.00,,,0.00,Wunderground v.1.15,2013-02-14 23:48:00,
2013-02-14 18:49:00,43.6,35.5,29.98,SSW,208,0.0,0.0,73,0.00,,,0.00,Wunderground v.1.15,2013-02-14 23:49:00,
2013-02-14 18:50:00,43.5,35.8,29.98,SSW,208,0.0,0.0,74,0.00,,,0.00,Wunderground v.1.15,2013-02-14 23:50:00,
2013-02-14 18:52:00,43.5,35.8,29.99,SSW,208,0.0,0.0,74,0.00,,,0.00,Wunderground v.1.15,2013-02-14 23:52:00,
2013-02-14 18:53:00,43.4,35.7,29.99,SSW,208,0.0,0.0,74,0.00,,,0.00,Wunderground v.1.15,2013-02-14 23:53:00,
2013-02-14 18:54:00,43.3,35.6,29.99,SSW,208,0.0,0.0,74,0.00,,,0.00,Wunderground v.1.15,2013-02-14 23:54:00,
2013-02-14 18:55:00,43.3,35.6,29.99,SSW,208,0.0,0.0,74,0.00,,,0.00,Wunderground v.1.15,2013-02-14 23:55:00,
2013-02-14 18:57:00,43.2,35.5,29.99,SSW,208,0.0,0.0,74,0.00,,,0.00,Wunderground v.1.15,2013-02-14 23:57:00,
2013-02-14 18:58:00,43.1,35.7,29.99,SSW,208,0.0,0.0,75,0.00,,,0.00,Wunderground v.1.15,2013-02-14 23:58:00,
2013-02-14 18:59:00,43.1,35.7,29.99,SSW,208,0.0,0.0,75,0.00,,,0.00,Wunderground v.1.15,2013-02-14 23:59:00,
2013-02-14 19:00:00,43.0,35.6,29.99,SSW,208,0.0,0.0,75,0.00,,,0.00,Wunderground v.1.15,2013-02-15 00:00:00,
2013-02-14 19:02:00,42.9,35.5,29.99,SSW,208,0.0,0.0,75,0.00,,,0.00,Wunderground v.1.15,2013-02-15 00:02:00,
2013-02-14 19:04:00,42.8,35.4,29.99,SSW,209,0.0,0.0,75,0.00,,,0.00,Wunderground v.1.15,2013-02-15 00:04:00,
2013-02-14 19:05:00,42.7,35.7,29.99,SSW,208,0.0,0.0,76,0.00,,,0.00,Wunderground v.1.15,2013-02-15 00:05:00,
2013-02-14 19:07:00,42.7,35.7,29.99,SSW,208,0.0,0.0,76,0.00,,,0.00,Wunderground v.1.15,2013-02-15 00:07:00,
2013-02-14 19:09:00,42.5,35.5,29.99,SSW,208,0.0,0.0,76,0.00,,,0.00,Wunderground v.1.15,2013-02-15 00:09:00,
2013-02-14 19:11:00,42.4,35.4,29.99,SSW,209,0.0,0.0,76,0.00,,,0.00,Wunderground v.1.15,2013-02-15 00:11:00,
2013-02-14 19:12:00,42.3,35.6,29.98,SSW,208,0.0,0.0,77,0.00,,,0.00,Wunderground v.1.15,2013-02-15 00:12:00,
2013-02-14 19:14:00,42.2,35.5,29.98,SSW,208,0.0,0.0,77,0.00,,,0.00,Wunderground v.1.15,2013-02-15 00:14:00,
2013-02-14 19:16:00,42.2,35.5,29.98,SSW,208,0.0,0.0,77,0.00,,,0.00,Wunderground v.1.15,2013-02-15 00:16:00,
2013-02-14 19:17:00,42.1,35.4,29.98,SSW,208,0.0,0.0,77,0.00,,,0.00,Wunderground v.1.15,2013-02-15 00:17:00,
2013-02-14 19:19:00,42.1,35.7,29.99,SSW,208,0.0,0.0,78,0.00,,,0.00,Wunderground v.1.15,2013-02-15 00:19:00,
2013-02-14 19:21:00,42.0,35.6,29.98,SSW,209,0.0,0.0,78,0.00,,,0.00,Wunderground v.1.15,2013-02-15 00:21:00,
2013-02-14 19:22:00,41.9,35.5,29.98,SSW,208,0.0,0.0,78,0.00,,,0.00,Wunderground v.1.15,2013-02-15 00:22:00,
2013-02-14 19:24:00,41.9,35.5,29.98,SSW,208,0.0,0.0,78,0.00,,,0.00,Wunderground v.1.15,2013-02-15 00:24:00,
2013-02-14 19:26:00,41.7,35.3,29.98,SSW,208,0.0,0.0,78,0.00,,,0.00,Wunderground v.1.15,2013-02-15 00:26:00,
2013-02-14 19:27:00,41.7,35.3,29.99,SSW,208,0.0,0.0,78,0.00,,,0.00,Wunderground v.1.15,2013-02-15 00:27:00,
2013-02-14 19:29:00,41.6,35.6,29.99,SSW,208,0.0,0.0,79,0.00,,,0.00,Wunderground v.1.15,2013-02-15 00:29:00,
2013-02-14 19:30:00,41.6,35.6,29.99,SSW,208,0.0,0.0,79,0.00,,,0.00,Wunderground v.1.15,2013-02-15 00:30:00,
2013-02-14 19:32:00,41.5,35.5,29.99,SSW,208,0.0,0.0,79,0.00,,,0.00,Wunderground v.1.15,2013-02-15 00:32:00,
2013-02-14 19:34:00,41.5,35.8,29.99,SSW,208,0.0,0.0,80,0.00,,,0.00,Wunderground v.1.15,2013-02-15 00:34:00,
2013-02-14 19:35:00,41.5,35.8,29.99,SSW,209,0.0,0.0,80,0.00,,,0.00,Wunderground v.1.15,2013-02-15 00:35:00,
2013-02-14 19:37:00,41.4,35.7,29.99,SSW,208,0.0,0.0,80,0.00,,,0.00,Wunderground v.1.15,2013-02-15 00:37:00,
2013-02-14 19:39:00,41.4,35.7,29.99,SSW,208,0.0,0.0,80,0.00,,,0.00,Wunderground v.1.15,2013-02-15 00:39:00,
2013-02-14 19:40:00,41.4,35.7,29.99,SSW,209,0.0,0.0,80,0.00,,,0.00,Wunderground v.1.15,2013-02-15 00:40:00,
2013-02-14 19:42:00,41.3,35.6,29.99,SSW,208,0.0,0.0,80,0.00,,,0.00,Wunderground v.1.15,2013-02-15 00:42:00,
2013-02-14 19:44:00,41.2,35.5,30.00,SSW,208,0.0,0.0,80,0.00,,,0.00,Wunderground v.1.15,2013-02-15 00:44:00,
2013-02-14 19:45:00,41.2,35.5,30.00,SSW,209,0.0,0.0,80,0.00,,,0.00,Wunderground v.1.15,2013-02-15 00:45:00,
2013-02-14 19:47:00,41.0,35.3,30.00,SSW,208,0.0,0.0,80,0.00,,,0.00,Wunderground v.1.15,2013-02-15 00:47:00,
2013-02-14 19:48:00,41.0,35.3,30.00,SSW,209,0.0,0.0,80,0.00,,,0.00,Wunderground v.1.15,2013-02-15 00:48:00,
2013-02-14 19:50:00,40.9,35.5,30.00,SSW,208,0.0,0.0,81,0.00,,,0.00,Wunderground v.1.15,2013-02-15 00:50:00,
2013-02-14 19:53:00,40.7,35.3,30.00,SSW,208,0.0,0.0,81,0.00,,,0.00,Wunderground v.1.15,2013-02-15 00:53:00,
2013-02-14 19:55:00,40.7,35.6,30.00,SSW,208,0.0,0.0,82,0.00,,,0.00,Wunderground v.1.15,2013-02-15 00:55:00,
2013-02-14 19:58:00,40.5,35.4,30.00,SSW,209,0.0,0.0,82,0.00,,,0.00,Wunderground v.1.15,2013-02-15 00:58:00,
2013-02-14 20:00:00,40.4,35.3,30.00,SSW,208,0.0,0.0,82,0.00,,,0.00,Wunderground v.1.15,2013-02-15 01:00:00,
2013-02-14 20:03:00,40.4,35.3,30.01,SSW,209,0.0,0.0,82,0.00,,,0.00,Wunderground v.1.15,2013-02-15 01:03:00,
2013-02-14 20:05:00,40.4,35.3,30.01,SSW,208,0.0,0.0,82,0.00,,,0.00,Wunderground v.1.15,2013-02-15 01:05:00,
2013-02-14 20:08:00,40.5,35.4,30.00,SSW,209,0.0,0.0,82,0.00,,,0.00,Wunderground v.1.15,2013-02-15 01:08:00,
2013-02-14 20:10:00,40.5,35.4,30.01,SSW,208,0.0,0.0,82,0.00,,,0.00,Wunderground v.1.15,2013-02-15 01:10:00,
2013-02-14 20:13:00,40.4,35.3,30.01,SSW,208,0.0,0.0,82,0.00,,,0.00,Wunderground v.1.15,2013-02-15 01:13:00,
2013-02-14 20:14:00,40.4,35.3,30.01,SSW,208,0.0,0.0,82,0.00,,,0.00,Wunderground v.1.15,2013-02-15 01:14:00,
2013-02-14 20:15:00,40.3,35.2,30.01,SSW,208,0.0,0.0,82,0.00,,,0.00,Wunderground v.1.15,2013-02-15 01:15:00,
2013-02-14 20:16:00,40.3,35.2,30.01,SSW,208,0.0,0.0,82,0.00,,,0.00,Wunderground v.1.15,2013-02-15 01:16:00,
2013-02-14 20:18:00,40.2,35.1,30.01,SSW,209,0.0,0.0,82,0.00,,,0.00,Wunderground v.1.15,2013-02-15 01:18:00,
2013-02-14 20:19:00,40.2,35.1,30.01,SSW,208,0.0,0.0,82,0.00,,,0.00,Wunderground v.1.15,2013-02-15 01:19:00,
2013-02-14 20:20:00,40.3,35.2,30.02,SSW,208,0.0,0.0,82,0.00,,,0.00,Wunderground v.1.15,2013-02-15 01:20:00,
2013-02-14 20:21:00,40.4,35.3,30.01,SSW,208,0.0,0.0,82,0.00,,,0.00,Wunderground v.1.15,2013-02-15 01:21:00,
2013-02-14 20:23:00,40.5,35.1,30.01,SSW,197,1.0,1.0,81,0.00,,,0.00,Wunderground v.1.15,2013-02-15 01:23:00,
2013-02-14 20:24:00,40.5,35.1,30.01,SSW,197,0.0,1.0,81,0.00,,,0.00,Wunderground v.1.15,2013-02-15 01:24:00,
2013-02-14 20:25:00,40.5,35.1,30.01,SSW,197,0.0,1.0,81,0.00,,,0.00,Wunderground v.1.15,2013-02-15 01:25:00,
2013-02-14 20:26:00,40.6,34.9,30.01,SSW,198,0.0,1.0,80,0.00,,,0.00,Wunderground v.1.15,2013-02-15 01:26:00,
2013-02-14 20:28:00,40.6,34.9,30.02,SSW,197,0.0,1.0,80,0.00,,,0.00,Wunderground v.1.15,2013-02-15 01:28:00,
2013-02-14 20:29:00,40.6,34.9,30.02,SSW,198,0.0,1.0,80,0.00,,,0.00,Wunderground v.1.15,2013-02-15 01:29:00,
2013-02-14 20:30:00,40.7,35.0,30.02,SSW,198,0.0,1.0,80,0.00,,,0.00,Wunderground v.1.15,2013-02-15 01:30:00,
2013-02-14 20:31:00,40.7,35.0,30.02,SSW,197,0.0,1.0,80,0.00,,,0.00,Wunderground v.1.15,2013-02-15 01:31:00,
2013-02-14 20:34:00,40.8,35.1,30.02,SSW,197,0.0,1.0,80,0.00,,,0.00,Wunderground v.1.15,2013-02-15 01:34:00,
2013-02-14 20:35:00,40.8,35.1,30.02,SSW,197,0.0,1.0,80,0.00,,,0.00,Wunderground v.1.15,2013-02-15 01:35:00,
2013-02-14 20:37:00,40.8,34.8,30.02,SSE,152,0.0,1.0,79,0.00,,,0.00,Wunderground v.1.15,2013-02-15 01:37:00,
2013-02-14 20:39:00,40.9,34.9,30.02,SSE,153,0.0,1.0,79,0.00,,,0.00,Wunderground v.1.15,2013-02-15 01:39:00,
2013-02-14 20:40:00,40.9,34.9,30.02,SSE,152,0.0,0.0,79,0.00,,,0.00,Wunderground v.1.15,2013-02-15 01:40:00,
2013-02-14 20:42:00,41.0,35.0,30.02,SSE,152,0.0,0.0,79,0.00,,,0.00,Wunderground v.1.15,2013-02-15 01:42:00,
2013-02-14 20:44:00,41.1,35.1,30.02,SSE,152,0.0,0.0,79,0.00,,,0.00,Wunderground v.1.15,2013-02-15 01:44:00,
2013-02-14 20:45:00,41.1,34.8,30.02,SSE,152,0.0,0.0,78,0.00,,,0.00,Wunderground v.1.15,2013-02-15 01:45:00,
2013-02-14 20:47:00,41.1,34.8,30.02,SSE,153,0.0,0.0,78,0.00,,,0.00,Wunderground v.1.15,2013-02-15 01:47:00,
2013-02-14 20:49:00,41.1,34.8,30.02,SSE,152,1.0,1.0,78,0.00,,,0.00,Wunderground v.1.15,2013-02-15 01:49:00,
2013-02-14 20:51:00,41.1,34.8,30.02,SSE,153,0.0,0.0,78,0.00,,,0.00,Wunderground v.1.15,2013-02-15 01:51:00,
2013-02-14 20:52:00,41.1,34.8,30.02,SSE,153,0.0,0.0,78,0.00,,,0.00,Wunderground v.1.15,2013-02-15 01:52:00,
2013-02-14 20:54:00,41.1,34.8,30.02,SSE,152,0.0,0.0,78,0.00,,,0.00,Wunderground v.1.15,2013-02-15 01:54:00,
2013-02-14 20:55:00,41.1,34.8,30.02,SSE,152,0.0,0.0,78,0.00,,,0.00,Wunderground v.1.15,2013-02-15 01:55:00,
2013-02-14 20:56:00,41.1,34.8,30.02,SSE,153,0.0,0.0,78,0.00,,,0.00,Wunderground v.1.15,2013-02-15 01:56:00,
2013-02-14 20:57:00,41.1,34.8,30.02,SSE,153,0.0,0.0,78,0.00,,,0.00,Wunderground v.1.15,2013-02-15 01:57:00,
2013-02-14 20:59:00,41.0,34.7,30.02,SSE,152,0.0,0.0,78,0.00,,,0.00,Wunderground v.1.15,2013-02-15 01:59:00,
2013-02-14 21:00:00,41.0,34.7,30.01,SSE,153,0.0,0.0,78,0.00,,,0.00,Wunderground v.1.15,2013-02-15 02:00:00,
2013-02-14 21:01:00,41.0,34.7,30.01,SSE,153,0.0,1.0,78,0.00,,,0.00,Wunderground v.1.15,2013-02-15 02:01:00,
2013-02-14 21:02:00,41.0,34.7,30.01,SSE,153,0.0,1.0,78,0.00,,,0.00,Wunderground v.1.15,2013-02-15 02:02:00,
2013-02-14 21:04:00,41.0,34.7,30.01,SSE,153,0.0,1.0,78,0.00,,,0.00,Wunderground v.1.15,2013-02-15 02:04:00,
2013-02-14 21:05:00,41.0,34.7,30.01,SSE,153,0.0,1.0,78,0.00,,,0.00,Wunderground v.1.15,2013-02-15 02:05:00,
2013-02-14 21:06:00,40.9,34.6,30.01,SSE,152,0.0,1.0,78,0.00,,,0.00,Wunderground v.1.15,2013-02-15 02:06:00,
2013-02-14 21:07:00,40.8,34.5,30.02,SSE,152,0.0,1.0,78,0.00,,,0.00,Wunderground v.1.15,2013-02-15 02:07:00,
2013-02-14 21:09:00,40.7,34.4,30.01,SSE,152,0.0,1.0,78,0.00,,,0.00,Wunderground v.1.15,2013-02-15 02:09:00,
2013-02-14 21:10:00,40.7,34.4,30.01,SSE,153,0.0,0.0,78,0.00,,,0.00,Wunderground v.1.15,2013-02-15 02:10:00,
2013-02-14 21:12:00,40.7,34.7,30.01,SSE,152,0.0,1.0,79,0.00,,,0.00,Wunderground v.1.15,2013-02-15 02:12:00,
2013-02-14 21:13:00,40.6,34.6,30.01,SSE,153,0.0,1.0,79,0.00,,,0.00,Wunderground v.1.15,2013-02-15 02:13:00,
2013-02-14 21:14:00,40.6,34.6,30.01,SSE,152,0.0,1.0,79,0.00,,,0.00,Wunderground v.1.15,2013-02-15 02:14:00,
2013-02-14 21:15:00,40.6,34.6,30.01,SSE,153,0.0,1.0,79,0.00,,,0.00,Wunderground v.1.15,2013-02-15 02:15:00,
2013-02-14 21:17:00,40.5,34.5,30.01,SSE,153,0.0,1.0,79,0.00,,,0.00,Wunderground v.1.15,2013-02-15 02:17:00,
2013-02-14 21:18:00,40.4,34.4,30.01,SSE,152,0.0,1.0,79,0.00,,,0.00,Wunderground v.1.15,2013-02-15 02:18:00,
2013-02-14 21:20:00,40.4,34.4,30.01,SSE,153,0.0,0.0,79,0.00,,,0.00,Wunderground v.1.15,2013-02-15 02:20:00,
2013-02-14 21:22:00,40.3,34.3,30.01,SSE,152,0.0,0.0,79,0.00,,,0.00,Wunderground v.1.15,2013-02-15 02:22:00,
2013-02-14 21:23:00,40.2,34.2,30.01,SSE,152,0.0,0.0,79,0.00,,,0.00,Wunderground v.1.15,2013-02-15 02:23:00,
2013-02-14 21:25:00,40.2,34.5,30.02,SSE,152,0.0,0.0,80,0.00,,,0.00,Wunderground v.1.15,2013-02-15 02:25:00,
2013-02-14 21:27:00,40.2,34.5,30.02,SSE,152,0.0,0.0,80,0.00,,,0.00,Wunderground v.1.15,2013-02-15 02:27:00,
2013-02-14 21:28:00,40.2,34.5,30.02,SSE,152,0.0,0.0,80,0.00,,,0.00,Wunderground v.1.15,2013-02-15 02:28:00,
2013-02-14 21:30:00,40.0,34.3,30.02,SSE,152,0.0,0.0,80,0.00,,,0.00,Wunderground v.1.15,2013-02-15 02:30:00,
2013-02-14 21:31:00,40.1,34.4,30.02,SSE,153,0.0,0.0,80,0.00,,,0.00,Wunderground v.1.15,2013-02-15 02:31:00,
2013-02-14 21:32:00,39.9,34.2,30.03,SSE,152,0.0,0.0,80,0.00,,,0.00,Wunderground v.1.15,2013-02-15 02:32:00,
2013-02-14 21:33:00,39.9,34.2,30.03,SSE,153,0.0,0.0,80,0.00,,,0.00,Wunderground v.1.15,2013-02-15 02:33:00,
2013-02-14 21:35:00,39.7,34.0,30.03,SSE,152,0.0,0.0,80,0.00,,,0.00,Wunderground v.1.15,2013-02-15 02:35:00,
2013-02-14 21:36:00,39.6,34.2,30.03,SSE,152,0.0,0.0,81,0.00,,,0.00,Wunderground v.1.15,2013-02-15 02:36:00,
2013-02-14 21:38:00,39.5,34.2,30.03,SSE,152,0.0,0.0,81,0.00,,,0.00,Wunderground v.1.15,2013-02-15 02:38:00,
2013-02-14 21:40:00,39.3,34.3,30.03,SSE,153,0.0,0.0,82,0.00,,,0.00,Wunderground v.1.15,2013-02-15 02:40:00,
2013-02-14 21:41:00,39.3,34.3,30.03,SSE,153,0.0,0.0,82,0.00,,,0.00,Wunderground v.1.15,2013-02-15 02:41:00,
2013-02-14 21:43:00,39.3,34.3,30.03,SSE,152,0.0,0.0,82,0.00,,,0.00,Wunderground v.1.15,2013-02-15 02:43:00,
2013-02-14 21:44:00,39.2,34.2,30.04,SSE,153,0.0,0.0,82,0.00,,,0.00,Wunderground v.1.15,2013-02-15 02:44:00,
2013-02-14 21:45:00,39.1,34.1,30.04,SSE,153,0.0,0.0,82,0.00,,,0.00,Wunderground v.1.15,2013-02-15 02:45:00,
2013-02-14 21:46:00,39.1,34.1,30.04,SSE,152,0.0,0.0,82,0.00,,,0.00,Wunderground v.1.15,2013-02-15 02:46:00,
2013-02-14 21:48:00,38.9,34.2,30.04,SSE,153,0.0,0.0,83,0.00,,,0.00,Wunderground v.1.15,2013-02-15 02:48:00,
2013-02-14 21:49:00,38.8,34.1,30.04,SSE,152,0.0,0.0,83,0.00,,,0.00,Wunderground v.1.15,2013-02-15 02:49:00,
2013-02-14 21:50:00,38.7,34.0,30.04,SSE,153,0.0,0.0,83,0.00,,,0.00,Wunderground v.1.15,2013-02-15 02:50:00,
2013-02-14 21:51:00,38.7,34.0,30.04,SSE,152,0.0,0.0,83,0.00,,,0.00,Wunderground v.1.15,2013-02-15 02:51:00,
2013-02-14 21:53:00,38.5,33.8,30.04,SSE,153,0.0,0.0,83,0.00,,,0.00,Wunderground v.1.15,2013-02-15 02:53:00,
2013-02-14 21:54:00,38.4,33.7,30.04,SSE,152,0.0,0.0,83,0.00,,,0.00,Wunderground v.1.15,2013-02-15 02:54:00,
2013-02-14 21:56:00,38.3,33.9,30.04,SSE,152,0.0,0.0,84,0.00,,,0.00,Wunderground v.1.15,2013-02-15 02:56:00,
2013-02-14 21:58:00,38.1,33.7,30.04,SSE,152,0.0,0.0,84,0.00,,,0.00,Wunderground v.1.15,2013-02-15 02:58:00,
2013-02-14 21:59:00,38.0,33.6,30.04,SSE,153,0.0,0.0,84,0.00,,,0.00,Wunderground v.1.15,2013-02-15 02:59:00,
2013-02-14 22:01:00,37.9,33.5,30.03,SSE,153,0.0,0.0,84,0.00,,,0.00,Wunderground v.1.15,2013-02-15 03:01:00,
2013-02-14 22:03:00,37.8,33.7,30.03,SSE,153,0.0,0.0,85,0.00,,,0.00,Wunderground v.1.15,2013-02-15 03:03:00,
2013-02-14 22:04:00,37.7,33.6,30.03,SSE,153,0.0,0.0,85,0.00,,,0.00,Wunderground v.1.15,2013-02-15 03:04:00,
2013-02-14 22:06:00,37.6,33.5,30.03,SSE,152,0.0,0.0,85,0.00,,,0.00,Wunderground v.1.15,2013-02-15 03:06:00,
2013-02-14 22:07:00,37.6,33.5,30.03,SSE,152,0.0,0.0,85,0.00,,,0.00,Wunderground v.1.15,2013-02-15 03:07:00,
2013-02-14 22:08:00,37.6,33.5,30.03,SSE,152,0.0,0.0,85,0.00,,,0.00,Wunderground v.1.15,2013-02-15 03:08:00,
2013-02-14 22:10:00,37.6,33.5,30.03,SSE,152,0.0,0.0,85,0.00,,,0.00,Wunderground v.1.15,2013-02-15 03:10:00,
2013-02-14 22:11:00,37.6,33.5,30.03,SSE,153,0.0,0.0,85,0.00,,,0.00,Wunderground v.1.15,2013-02-15 03:11:00,
2013-02-14 22:12:00,37.6,33.5,30.03,SSE,152,0.0,0.0,85,0.00,,,0.00,Wunderground v.1.15,2013-02-15 03:12:00,
2013-02-14 22:14:00,37.6,33.5,30.03,SSE,152,0.0,0.0,85,0.00,,,0.00,Wunderground v.1.15,2013-02-15 03:14:00,
2013-02-14 22:15:00,37.6,33.5,30.03,SSE,153,0.0,0.0,85,0.00,,,0.00,Wunderground v.1.15,2013-02-15 03:15:00,
2013-02-14 22:17:00,37.5,33.4,30.03,SSE,153,0.0,0.0,85,0.00,,,0.00,Wunderground v.1.15,2013-02-15 03:17:00,
2013-02-14 22:19:00,37.4,33.3,30.03,SSE,153,0.0,0.0,85,0.00,,,0.00,Wunderground v.1.15,2013-02-15 03:19:00,
2013-02-14 22:20:00,37.3,33.2,30.03,SSE,152,0.0,0.0,85,0.00,,,0.00,Wunderground v.1.15,2013-02-15 03:20:00,
2013-02-14 22:22:00,37.2,33.1,30.04,SSE,152,0.0,0.0,85,0.00,,,0.00,Wunderground v.1.15,2013-02-15 03:22:00,
2013-02-14 22:24:00,37.1,33.3,30.03,SSE,152,0.0,0.0,86,0.00,,,0.00,Wunderground v.1.15,2013-02-15 03:24:00,
2013-02-14 22:25:00,37.0,32.9,30.03,SSE,152,0.0,0.0,85,0.00,,,0.00,Wunderground v.1.15,2013-02-15 03:25:00,
2013-02-14 22:27:00,36.9,32.8,30.03,SSE,152,0.0,0.0,85,0.00,,,0.00,Wunderground v.1.15,2013-02-15 03:27:00,
2013-02-14 22:29:00,36.8,32.7,30.03,SSE,153,0.0,0.0,85,0.00,,,0.00,Wunderground v.1.15,2013-02-15 03:29:00,
2013-02-14 22:30:00,36.7,32.9,30.03,SSE,153,0.0,0.0,86,0.00,,,0.00,Wunderground v.1.15,2013-02-15 03:30:00,
2013-02-14 22:32:00,36.6,32.8,30.03,SSE,152,0.0,0.0,86,0.00,,,0.00,Wunderground v.1.15,2013-02-15 03:32:00,
2013-02-14 22:34:00,36.6,33.1,30.03,SSE,152,0.0,0.0,87,0.00,,,0.00,Wunderground v.1.15,2013-02-15 03:34:00,
2013-02-14 22:36:00,36.6,33.1,30.03,SSE,153,0.0,0.0,87,0.00,,,0.00,Wunderground v.1.15,2013-02-15 03:36:00,
2013-02-14 22:37:00,36.6,33.1,30.03,SSE,153,0.0,0.0,87,0.00,,,0.00,Wunderground v.1.15,2013-02-15 03:37:00,
2013-02-14 22:39:00,36.5,33.0,30.03,SSE,153,0.0,0.0,87,0.00,,,0.00,Wunderground v.1.15,2013-02-15 03:39:00,
2013-02-14 22:41:00,36.5,33.0,30.03,SSE,153,0.0,0.0,87,0.00,,,0.00,Wunderground v.1.15,2013-02-15 03:41:00,
2013-02-14 22:42:00,36.4,32.9,30.03,SSE,152,0.0,0.0,87,0.00,,,0.00,Wunderground v.1.15,2013-02-15 03:42:00,
2013-02-14 22:45:00,36.3,33.1,30.03,SSE,152,0.0,0.0,88,0.00,,,0.00,Wunderground v.1.15,2013-02-15 03:45:00,
2013-02-14 22:46:00,36.3,33.1,30.03,SSE,152,0.0,0.0,88,0.00,,,0.00,Wunderground v.1.15,2013-02-15 03:46:00,
2013-02-14 22:47:00,36.3,33.1,30.03,SSE,152,0.0,0.0,88,0.00,,,0.00,Wunderground v.1.15,2013-02-15 03:47:00,
2013-02-14 22:50:00,36.3,33.1,30.03,SSE,153,0.0,0.0,88,0.00,,,0.00,Wunderground v.1.15,2013-02-15 03:50:00,
2013-02-14 22:51:00,36.2,33.0,30.03,SSE,153,0.0,0.0,88,0.00,,,0.00,Wunderground v.1.15,2013-02-15 03:51:00,
2013-02-14 22:52:00,36.2,33.0,30.03,SSE,152,0.0,0.0,88,0.00,,,0.00,Wunderground v.1.15,2013-02-15 03:52:00,
2013-02-14 22:55:00,36.1,32.9,30.03,SSE,152,0.0,0.0,88,0.00,,,0.00,Wunderground v.1.15,2013-02-15 03:55:00,
2013-02-14 22:57:00,36.0,32.8,30.03,SSE,152,0.0,0.0,88,0.00,,,0.00,Wunderground v.1.15,2013-02-15 03:57:00,
2013-02-14 23:00:00,35.9,32.7,30.03,SSE,152,0.0,0.0,88,0.00,,,0.00,Wunderground v.1.15,2013-02-15 04:00:00,
2013-02-14 23:02:00,35.8,32.6,30.03,SSE,153,0.0,0.0,88,0.00,,,0.00,Wunderground v.1.15,2013-02-15 04:02:00,
2013-02-14 23:03:00,35.7,32.5,30.03,SSE,153,0.0,0.0,88,0.00,,,0.00,Wunderground v.1.15,2013-02-15 04:03:00,
2013-02-14 23:05:00,35.7,32.5,30.03,SSE,152,0.0,0.0,88,0.00,,,0.00,Wunderground v.1.15,2013-02-15 04:05:00,
2013-02-14 23:07:00,35.6,32.7,30.03,SSE,152,0.0,0.0,89,0.00,,,0.00,Wunderground v.1.15,2013-02-15 04:07:00,
2013-02-14 23:08:00,35.6,32.7,30.03,SSE,153,0.0,0.0,89,0.00,,,0.00,Wunderground v.1.15,2013-02-15 04:08:00,
2013-02-14 23:10:00,35.5,32.6,30.03,SSE,153,0.0,0.0,89,0.00,,,0.00,Wunderground v.1.15,2013-02-15 04:10:00,
2013-02-14 23:12:00,35.4,32.5,30.03,SSE,153,0.0,0.0,89,0.00,,,0.00,Wunderground v.1.15,2013-02-15 04:12:00,
2013-02-14 23:13:00,35.4,32.5,30.03,SSE,152,0.0,0.0,89,0.00,,,0.00,Wunderground v.1.15,2013-02-15 04:13:00,
2013-02-14 23:15:00,35.3,32.4,30.03,SSE,152,0.0,0.0,89,0.00,,,0.00,Wunderground v.1.15,2013-02-15 04:15:00,
2013-02-14 23:17:00,35.2,32.3,30.03,SSE,152,0.0,0.0,89,0.00,,,0.00,Wunderground v.1.15,2013-02-15 04:17:00,
2013-02-14 23:18:00,35.2,32.3,30.03,SSE,152,0.0,0.0,89,0.00,,,0.00,Wunderground v.1.15,2013-02-15 04:18:00,
2013-02-14 23:21:00,35.1,32.2,30.03,SSE,153,0.0,0.0,89,0.00,,,0.00,Wunderground v.1.15,2013-02-15 04:21:00,
2013-02-14 23:23:00,35.0,32.4,30.03,SSE,152,0.0,0.0,90,0.00,,,0.00,Wunderground v.1.15,2013-02-15 04:23:00,
2013-02-14 23:26:00,35.0,32.4,30.03,SSE,153,0.0,0.0,90,0.00,,,0.00,Wunderground v.1.15,2013-02-15 04:26:00,
2013-02-14 23:28:00,34.9,32.3,30.03,SSE,152,0.0,0.0,90,0.00,,,0.00,Wunderground v.1.15,2013-02-15 04:28:00,
2013-02-14 23:29:00,34.9,32.3,30.03,SSE,153,0.0,0.0,90,0.00,,,0.00,Wunderground v.1.15,2013-02-15 04:29:00,
2013-02-14 23:31:00,34.8,32.2,30.03,SSE,153,0.0,0.0,90,0.00,,,0.00,Wunderground v.1.15,2013-02-15 04:31:00,
2013-02-14 23:33:00,34.6,32.0,30.03,SSE,152,0.0,0.0,90,0.00,,,0.00,Wunderground v.1.15,2013-02-15 04:33:00,
2013-02-14 23:34:00,34.6,32.0,30.03,SSE,153,0.0,0.0,90,0.00,,,0.00,Wunderground v.1.15,2013-02-15 04:34:00,
2013-02-14 23:36:00,34.5,31.9,30.03,SSE,153,0.0,0.0,90,0.00,,,0.00,Wunderground v.1.15,2013-02-15 04:36:00,
2013-02-14 23:38:00,34.4,31.8,30.03,SSE,152,0.0,0.0,90,0.00,,,0.00,Wunderground v.1.15,2013-02-15 04:38:00,
2013-02-14 23:39:00,34.4,31.8,30.03,SSE,152,0.0,0.0,90,0.00,,,0.00,Wunderground v.1.15,2013-02-15 04:39:00,
2013-02-14 23:41:00,34.3,31.7,30.03,SSE,152,0.0,0.0,90,0.00,,,0.00,Wunderground v.1.15,2013-02-15 04:41:00,
2013-02-14 23:43:00,34.2,31.6,30.03,SSE,152,0.0,0.0,90,0.00,,,0.00,Wunderground v.1.15,2013-02-15 04:43:00,
2013-02-14 23:44:00,34.2,31.6,30.03,SSE,152,0.0,0.0,90,0.00,,,0.00,Wunderground v.1.15,2013-02-15 04:44:00,
2013-02-14 23:46:00,34.0,31.4,30.03,SSE,152,0.0,0.0,90,0.00,,,0.00,Wunderground v.1.15,2013-02-15 04:46:00,
2013-02-14 23:48:00,33.8,31.2,30.03,SSE,153,0.0,0.0,90,0.00,,,0.00,Wunderground v.1.15,2013-02-15 04:48:00,
2013-02-14 23:49:00,33.8,31.2,30.03,SSE,152,0.0,0.0,90,0.00,,,0.00,Wunderground v.1.15,2013-02-15 04:49:00,
2013-02-14 23:51:00,33.6,31.0,30.03,SSE,152,0.0,0.0,90,0.00,,,0.00,Wunderground v.1.15,2013-02-15 04:51:00,
2013-02-14 23:54:00,33.6,31.0,30.03,SSE,153,0.0,0.0,90,0.00,,,0.00,Wunderground v.1.15,2013-02-15 04:54:00,
2013-02-14 23:56:00,33.5,31.2,30.03,SSE,152,0.0,0.0,91,0.00,,,0.00,Wunderground v.1.15,2013-02-15 04:56:00,
2013-02-14 23:59:00,33.4,30.8,30.03,SSE,152,0.0,0.0,90,0.00,,,0.00,Wunderground v.1.15,2013-02-15 04:59:00,